GFSMA_con_3kmhel_060.txt.gz
Helicity
176 155 129 128 98 102 53 -2 -7 42 19 55 29 23 33 156 60 51 33 42 24 12 15 11 7 14 12 18 19 29 34 42 51 65 76 79 76 71 62 67 70 77 73
189 85 101 99 69 78 56 12 20 47 32 55 42 53 69 73 45 42 42 9 22 9 -3 8 8 9 20 22 16 20 3 24 40 48 50 56 54 56 61 64 64 74 58
89 47 67 43 56 64 26 7 70 48 57 65 44 64 76 70 35 59 37 24 4 15 11 19 22 17 12 19 16 7 27 31 36 32 34 41 47 48 52 53 57 64 49
-6 56 3 23 57 64 27 76 85 48 52 54 48 44 42 50 87 75 49 52 37 36 2 25 42 40 14 14 23 36 29 52 39 31 24 29 40 58 58 50 44 44 43
71 17 50 76 75 105 109 107 76 46 67 47 66 34 34 37 39 27 84 75 68 62 62 31 59 67 67 13 56 42 43 50 51 50 46 39 37 42 44 37 36 31 27
59 90 136 65 134 130 165 103 74 48 64 42 42 49 40 43 65 34 35 91 88 89 134 104 91 92 107 76 68 57 52 62 70 79 63 47 43 44 46 48 40 34 44
47 187 133 147 200 148 140 109 99 57 62 23 68 102 74 52 61 50 76 75 77 110 140 149 177 149 112 104 113 90 66 89 103 97 78 74 71 51 47 45 45 46 48
100 167 134 121 133 114 72 85 95 67 62 39 78 140 96 56 42 77 105 108 82 88 107 163 179 141 118 133 148 155 115 94 111 118 98 91 87 74 62 63 59 57 61
165 46 16 72 51 109 117 121 62 58 58 57 36 125 92 72 103 103 70 114 92 103 160 152 167 161 133 191 209 212 180 154 117 137 164 168 144 125 108 96 81 72 60
93 -24 -44 -70 -53 -37 236 106 62 62 68 91 67 -13 23 63 65 123 104 56 88 126 154 156 137 168 151 167 252 253 224 180 156 148 128 158 178 154 137 126 134 169 154
103 85 -69 -56 -44 -36 -43 29 50 58 66 65 126 71 -49 14 43 71 91 76 87 121 165 157 137 184 236 176 221 299 203 290 215 160 155 139 146 165 161 146 124 145 149
70 61 16 -70 -35 54 14 25 48 86 53 1 -31 59 83 101 63 62 99 131 182 159 171 254 216 208 209 252 329 385 367 359 265 277 207 177 162 165 158 181 154 132 118
30 -30 -87 -93 -66 -16 -43 49 128 76 81 32 -27 -37 60 55 84 69 77 92 121 150 201 269 309 278 244 259 303 331 358 337 316 249 168 175 193 207 155 132 130 128 128
60 11 -76 -115 -88 -75 -39 -44 26 87 81 61 75 38 95 112 141 142 120 148 163 174 292 344 330 315 298 298 328 356 395 314 325 295 193 213 223 224 182 151 151 147 163
84 -1 -83 -30 -7 -21 -5 69 80 117 115 139 136 176 167 154 160 157 152 198 222 216 257 295 331 306 306 386 334 357 284 240 230 176 189 165 232 219 208 226 186 188 205
81 38 -42 -20 43 38 79 70 82 85 152 166 151 154 198 202 204 210 219 241 266 265 266 315 294 370 372 303 245 297 237 173 209 169 195 154 183 183 264 214 162 200 208
120 77 52 33 25 30 47 105 90 114 143 182 198 237 234 236 193 213 231 272 298 376 348 305 287 384 315 310 284 271 236 252 253 214 231 201 174 206 203 190 207 221 208
92 106 115 98 73 94 110 143 145 159 188 188 195 190 186 205 195 208 262 284 390 468 373 237 273 363 299 252 299 321 307 268 254 221 181 200 229 284 263 187 204 196 191
128 124 134 142 169 160 165 193 208 197 203 215 206 204 223 260 255 260 315 388 433 405 319 287 319 368 330 311 362 328 287 287 284 294 241 272 316 247 208 191 172 162 185
152 169 181 175 173 197 236 238 247 261 271 274 271 271 242 249 277 284 358 426 510 410 312 316 400 509 406 378 385 428 378 373 378 289 256 327 225 285 265 220 173 173 189
192 189 199 205 217 237 222 244 297 304 287 273 273 259 253 264 302 320 399 397 385 349 299 416 456 490 468 497 489 536 468 454 301 174 324 344 423 401 324 233 189 159 157
220 228 230 244 254 259 261 297 321 315 292 277 270 273 295 332 319 297 335 356 419 326 407 540 397 470 403 551 599 542 563 433 415 296 312 348 353 412 375 276 208 170 197
297 287 270 275 249 245 254 275 300 287 283 306 307 321 357 375 386 460 574 661 713 777 782 538 550 636 739 511 584 529 561 426 381 403 443 446 489 409 310 230 206 210 231
309 307 286 290 270 225 200 216 263 269 259 253 280 286 287 413 454 508 596 687 768 875 804 722 697 644 674 652 710 602 458 398 429 438 425 367 347 357 233 242 222 215 216
265 281 271 242 221 194 283 220 275 347 505 525 480 445 449 509 511 526 587 638 724 704 725 678 629 674 801 640 629 438 409 432 396 395 366 389 314 278 247 273 292 242 236
212 287 538 576 550 518 456 361 454 521 567 572 582 579 556 573 663 626 664 708 774 694 825 928 564 806 715 477 409 409 414 379 377 338 294 317 326 304 288 256 315 269 221

GFSMA_con_3kmhel_063.txt.gz
Helicity
218 232 203 200 167 104 73 57 72 46 85 116 98 104 95 61 43 34 36 46 40 24 20 18 14 16 19 8 8 10 23 22 49 46 59 60 76 81 78 82 89 93 93
195 228 185 131 108 56 46 42 70 34 71 102 102 100 118 82 30 40 58 42 34 23 12 13 5 4 1 -2 1 6 23 31 39 46 44 55 64 68 80 80 78 76 70
223 204 207 91 70 39 20 27 36 26 72 52 106 112 92 53 15 42 49 24 11 17 17 6 0 -1 -3 0 -9 2 7 17 30 30 41 37 45 59 70 70 64 60 54
223 239 195 95 61 12 25 21 11 64 74 68 118 132 94 74 38 20 28 31 22 12 4 18 19 0 -7 1 1 1 6 20 27 23 32 35 37 47 47 53 56 53 53
139 147 152 70 56 13 44 46 45 87 91 78 84 95 110 74 54 42 23 30 23 40 44 20 50 38 26 17 5 20 -8 38 30 32 37 35 33 36 39 43 44 37 32
118 124 99 55 31 18 60 100 82 99 91 75 70 62 52 77 53 45 50 54 54 57 54 51 49 31 64 40 31 32 6 53 49 47 50 46 45 46 40 36 36 32 28
127 167 133 85 82 66 93 95 101 101 94 104 115 83 56 40 51 56 106 100 84 78 97 73 100 93 80 85 66 49 40 69 78 71 78 69 58 59 54 49 44 43 38
174 274 257 158 130 135 186 135 147 160 91 119 110 136 101 107 49 32 54 131 138 122 125 118 143 132 134 118 105 77 69 92 93 112 102 104 90 74 62 66 67 56 46
213 295 279 161 146 66 30 96 140 124 102 71 103 154 180 114 93 94 57 82 98 149 181 163 161 167 174 167 141 130 105 112 131 137 179 167 139 101 96 80 73 62 67
318 235 192 74 15 19 121 147 156 165 166 48 85 80 141 105 110 117 129 108 109 106 80 142 212 209 204 213 184 185 212 237 215 195 154 180 260 166 140 114 95 71 74
166 171 226 91 56 107 110 100 114 74 130 47 61 71 90 104 95 112 81 72 92 95 61 126 190 232 237 237 262 238 248 279 260 228 209 163 199 223 167 161 136 102 79
43 167 229 216 139 -98 -103 -29 17 93 134 57 78 105 100 96 82 133 170 129 131 102 89 106 153 203 229 258 302 293 296 311 292 252 238 201 204 178 155 134 132 128 89
120 82 84 157 126 -39 -74 -1 92 159 97 -13 33 99 83 54 129 130 149 140 162 139 152 140 159 171 202 249 274 317 321 332 388 345 319 272 201 178 145 137 156 159 124
148 103 83 9 -15 -35 -70 -59 -13 41 49 3 5 105 142 127 157 125 111 132 140 147 200 202 221 227 259 314 273 262 306 403 422 392 294 238 150 167 140 154 210 203 163
137 111 66 50 4 -28 71 0 -13 37 197 80 90 87 118 150 195 194 129 127 133 165 158 212 251 262 286 319 276 309 315 332 302 309 271 196 183 179 204 185 193 195 173
143 120 112 81 61 5 -13 -7 18 48 113 55 97 115 120 170 236 243 200 208 244 203 154 237 286 312 302 309 307 278 239 182 228 252 219 179 186 146 199 217 224 204 222
132 148 114 74 56 45 68 73 64 66 63 85 107 159 152 182 220 245 267 238 221 244 233 253 311 301 331 337 314 270 252 221 210 243 252 217 200 181 216 209 200 193 219
114 132 129 108 82 48 5 46 115 121 139 122 156 187 188 227 248 274 310 294 302 288 308 258 318 453 357 342 303 281 279 227 233 209 206 234 245 247 182 219 251 230 235
132 128 112 120 104 93 62 34 86 152 187 174 180 236 224 256 278 295 316 309 345 343 334 332 310 450 479 466 365 289 292 236 221 204 202 237 252 236 248 181 264 230 168
140 125 149 151 129 114 84 93 139 185 213 231 243 267 278 304 332 324 350 359 367 384 394 383 310 397 497 375 353 370 348 340 277 264 294 310 349 348 186 238 251 147 169
185 175 154 159 168 168 177 179 184 197 209 212 238 271 305 339 343 337 349 322 331 366 372 340 370 518 570 509 523 508 438 436 413 478 475 435 298 376 245 251 158 214 199
179 202 184 210 227 233 204 261 297 253 239 252 269 293 305 298 284 282 283 286 308 351 345 367 379 387 432 499 537 580 601 676 556 512 562 431 347 362 211 277 307 318 274
262 236 223 231 226 250 238 249 250 258 297 310 304 307 310 325 309 303 400 480 545 617 576 339 332 435 630 695 675 545 524 633 624 623 593 489 354 328 392 461 392 315 286
326 305 282 280 279 284 302 297 288 306 296 277 288 295 290 296 355 456 515 548 551 553 537 592 719 893 878 803 742 702 755 658 672 703 610 521 325 371 398 311 228 225 236
403 394 349 309 285 280 319 314 361 339 291 450 496 499 456 455 454 505 629 711 748 762 872 997 1041 1136 961 1044 923 736 744 688 575 530 378 318 359 330 278 197 191 349 382
436 463 524 592 568 471 478 387 342 485 586 602 604 577 559 555 574 593 699 812 932 928 911 770 731 657 490 647 480 518 592 487 303 292 323 355 332 272 280 239 309 337 315

GFSMA_con_3kmhel_069.txt.gz
Helicity
291 253 102 137 113 163 246 225 219 171 126 123 114 103 70 71 49 36 20 21 27 20 22 20 21 25 23 17 18 20 29 29 36 38 48 57 67 65 86 77 81 86 83
210 138 122 105 85 133 203 241 250 204 174 96 102 109 85 90 57 41 45 27 19 14 19 23 24 20 16 14 13 16 24 27 30 39 49 64 78 69 80 73 81 87 86
224 166 160 113 86 105 188 259 277 247 183 103 87 107 109 119 64 42 57 54 24 17 13 24 22 14 7 12 9 8 15 23 25 41 49 56 65 58 65 73 88 88 86
161 128 156 112 81 101 189 215 254 247 182 108 108 97 116 115 76 76 78 64 44 23 17 22 11 10 6 6 5 11 16 17 21 23 34 31 41 50 59 78 76 85 81
103 118 133 152 111 143 125 139 213 238 203 168 119 98 125 102 85 83 69 58 41 22 21 13 18 17 10 6 11 12 16 14 -1 2 11 12 28 53 52 44 59 61 67
129 167 147 193 180 191 241 220 183 275 226 185 135 106 99 100 92 71 50 61 50 27 21 25 26 28 22 20 11 12 6 0 1 -3 -1 13 17 26 54 44 40 45 53
117 164 147 169 182 165 185 167 240 272 249 191 216 187 134 126 91 60 65 54 39 23 30 37 45 53 37 30 19 -3 -13 -7 -4 -4 7 26 40 30 46 55 60 67 55
200 169 197 164 156 139 147 188 272 273 219 156 176 223 172 128 74 65 51 45 32 58 49 44 60 73 84 79 61 29 8 -15 4 13 24 31 48 61 59 65 80 80 71
229 187 166 203 160 218 151 153 201 191 207 141 164 201 275 166 114 73 42 55 45 74 69 75 93 101 108 113 106 79 61 37 28 25 39 94 113 113 94 85 100 97 93
200 220 131 157 200 203 168 128 133 157 136 149 200 191 190 177 179 157 52 66 88 90 90 105 112 131 138 143 126 133 120 108 94 79 73 75 139 181 180 170 145 118 106
228 223 124 163 153 167 111 151 115 138 154 146 212 252 297 235 195 145 139 92 137 124 109 125 140 138 149 169 166 151 154 162 145 136 137 130 141 171 204 225 215 195 154
225 201 133 144 166 165 138 183 189 167 196 164 170 222 215 317 230 189 69 53 94 122 157 150 154 160 161 173 166 166 183 192 200 194 185 190 192 201 207 264 282 269 250
254 175 161 189 240 281 196 203 206 216 261 173 171 209 190 235 198 95 132 96 86 87 82 89 145 157 188 206 183 179 177 207 220 229 230 231 222 222 225 206 214 271 295
56 178 273 273 219 258 289 242 221 212 101 46 142 180 181 199 233 289 233 189 121 84 116 118 124 150 189 216 195 193 207 201 214 237 254 272 259 255 246 227 214 233 237
-31 120 168 153 179 243 231 274 206 127 7 102 75 173 205 195 188 194 197 196 176 90 86 119 153 175 219 235 224 231 252 213 225 255 285 301 308 281 240 217 203 209 216
45 121 190 165 113 59 34 49 -25 -25 100 25 38 87 97 90 115 134 134 179 221 185 171 177 203 204 209 231 211 231 264 272 255 261 281 298 309 280 230 199 184 178 180
21 90 144 164 167 152 126 125 100 70 88 91 113 115 38 105 145 168 164 185 198 226 192 168 205 192 226 227 235 278 278 286 273 237 268 288 320 300 306 249 205 185 210
92 74 46 56 83 110 161 208 199 196 176 146 149 148 89 154 156 147 177 166 205 219 251 204 199 222 255 264 275 293 276 289 301 273 292 268 287 262 272 286 150 170 207
86 78 109 126 103 72 66 80 95 93 111 128 166 160 161 189 109 127 152 153 172 209 270 269 224 256 252 278 253 284 271 266 297 261 245 252 256 291 249 185 161 184 222
147 136 112 114 113 117 111 100 90 91 92 111 142 140 147 172 117 122 164 192 196 224 240 261 253 219 228 242 277 223 215 258 251 250 263 277 291 267 233 220 213 218 235
222 205 200 161 132 127 126 124 124 126 108 117 146 152 153 168 175 209 259 219 242 275 264 258 236 217 200 297 344 306 298 257 272 305 311 335 352 357 287 264 313 247 325
216 226 225 229 214 205 183 191 193 181 182 188 178 186 186 227 221 222 253 237 258 278 256 229 203 188 182 232 297 325 310 333 310 357 339 394 420 397 431 390 319 326 413
143 199 236 251 248 228 231 303 311 217 196 214 215 225 242 264 260 271 269 298 282 295 272 236 209 211 228 265 267 330 369 331 378 532 633 635 697 804 671 667 701 877 692
152 150 110 168 211 237 247 296 362 338 271 230 247 252 255 250 275 295 284 273 285 320 374 365 305 283 315 413 449 462 505 739 850 822 711 752 739 743 782 711 770 810 628
122 113 100 83 109 131 188 240 324 324 339 320 306 274 291 311 295 328 357 328 474 548 546 526 587 664 719 707 559 605 713 696 753 779 844 745 726 829 750 703 619 653 591
120 107 100 124 188 197 307 310 338 291 308 369 334 301 532 457 417 360 369 421 565 669 773 832 846 923 913 933 980 897 750 777 749 814 672 704 759 746 711 625 466 395 364

GFSMA_con_3kmhel_072.txt.gz
Helicity
184 187 199 194 169 246 218 219 208 191 181 128 123 81 85 79 91 83 32 22 26 24 14 11 8 5 10 8 17 19 20 19 27 35 44 45 44 44 44 52 53 61 56
223 152 193 182 188 236 219 197 196 199 196 132 114 69 74 83 84 66 39 23 32 15 5 8 8 3 4 7 14 16 22 24 25 29 27 28 28 36 39 50 58 56 52
200 189 277 269 214 233 205 213 215 236 192 143 131 76 100 90 82 66 65 62 16 16 8 10 2 4 3 6 12 18 19 20 15 15 12 15 18 25 33 47 45 41 48
177 207 252 168 236 221 209 215 227 218 186 167 102 112 104 99 84 77 75 78 54 39 19 17 11 0 0 13 13 14 14 14 7 8 11 9 3 14 18 30 37 35 48
194 244 230 164 221 207 192 207 247 206 210 158 144 124 110 103 88 87 75 68 61 46 41 20 22 8 5 3 13 12 14 13 8 10 8 1 -2 4 5 17 39 34 37
270 281 208 157 212 195 158 193 199 241 209 171 162 165 131 108 100 96 84 72 60 44 42 45 35 30 18 11 7 12 13 13 8 6 3 7 2 0 0 13 36 31 33
349 194 154 144 214 195 165 208 199 221 268 235 266 234 177 88 108 98 101 87 71 44 41 45 48 51 39 23 19 8 0 -3 0 7 8 12 20 15 18 24 47 39 24
182 215 150 127 168 212 159 216 271 290 298 214 251 279 187 142 100 78 90 88 73 61 41 42 54 56 55 62 53 20 -3 -5 2 14 26 31 39 35 36 42 55 49 50
124 171 151 137 135 182 211 270 216 257 357 203 196 227 270 206 165 141 80 110 85 72 53 56 63 64 72 79 82 63 42 28 12 9 29 65 87 88 83 70 66 68 75
144 172 178 146 145 162 156 142 210 241 324 275 252 255 191 116 187 198 137 120 103 82 54 61 76 88 96 101 94 108 107 94 78 50 43 30 73 125 142 155 157 138 124
208 203 188 174 125 173 186 160 218 190 244 253 300 251 226 211 156 218 254 185 126 95 98 125 121 109 109 128 122 123 129 128 121 109 101 85 74 92 131 169 190 218 235
191 186 213 214 204 209 203 194 208 180 147 160 188 229 247 233 224 248 231 343 124 83 148 173 156 139 133 143 147 145 157 152 150 143 130 127 124 134 149 178 200 233 261
130 200 206 181 151 178 201 235 212 197 251 159 126 157 197 194 212 217 238 187 133 -27 65 76 115 133 148 172 165 176 158 158 149 152 152 152 155 162 175 190 194 202 237
-7 115 159 191 177 151 175 239 221 245 205 198 224 170 138 136 236 224 259 139 113 101 104 66 89 83 130 183 158 166 170 166 180 193 192 190 187 194 202 217 213 208 201
-17 59 149 198 206 215 228 260 241 146 156 131 125 103 121 117 119 230 213 191 192 126 93 84 96 139 177 180 134 171 166 137 154 184 206 212 216 218 229 247 244 236 241
30 49 70 92 177 217 181 212 245 250 231 216 201 170 170 61 105 96 245 81 196 168 104 110 112 149 170 190 162 182 196 179 163 187 200 212 210 210 231 258 263 246 234
44 76 94 111 119 119 142 172 158 243 247 203 217 165 100 53 162 106 80 134 150 198 198 117 161 154 217 225 228 255 240 240 226 182 188 205 226 231 230 245 266 233 260
24 46 100 134 150 135 136 126 100 100 131 120 109 109 106 153 116 124 165 175 194 201 249 145 140 165 193 212 232 241 235 278 267 208 213 224 224 232 223 237 265 258 228
86 88 95 119 136 140 166 186 196 190 198 178 155 151 167 155 131 177 215 216 223 221 242 240 195 182 165 194 197 202 187 202 235 190 195 178 185 194 206 233 244 256 237
92 95 117 136 147 159 184 186 170 164 180 190 186 179 190 189 175 189 230 214 206 197 193 209 198 156 146 162 223 153 143 212 218 244 229 213 221 217 209 231 263 252 272
96 105 118 123 132 137 155 177 204 245 248 233 239 236 246 256 231 222 220 196 216 247 242 240 237 228 193 174 232 203 226 218 231 275 254 288 280 279 251 192 203 208 233
125 128 121 127 152 181 178 200 212 180 171 181 187 192 195 192 192 231 294 273 262 293 288 279 265 265 270 305 258 309 278 252 187 267 243 271 392 428 473 424 315 255 216
172 204 165 122 141 169 199 224 261 251 215 215 210 201 178 202 208 196 185 244 254 282 278 271 269 289 263 298 286 270 316 351 275 368 471 488 550 620 602 584 715 814 881
156 149 154 169 159 169 292 277 262 170 243 270 276 279 271 234 215 231 251 254 305 323 283 295 286 288 389 423 466 452 419 492 794 799 812 710 801 778 885 891 962 1048 1038
142 154 157 165 181 169 211 156 109 122 144 184 247 281 321 337 349 357 311 269 272 429 681 685 719 772 905 775 607 534 496 560 663 800 959 800 869 875 925 926 937 932 924
132 129 136 141 174 167 238 192 136 28 56 107 147 387 490 454 421 345 355 312 317 527 697 717 838 859 808 849 777 568 488 590 713 517 666 605 700 764 763 853 752 639 510

GFSMA_con_3kmhel_075.txt.gz
Helicity
233 188 152 136 216 207 124 122 105 97 96 96 85 74 62 48 44 33 34 34 29 34 37 23 23 23 20 9 6 20 11 12 14 21 22 26 29 35 40 40 43 45 48
222 229 143 147 222 222 160 125 95 75 86 87 78 62 43 40 23 10 41 21 41 38 14 17 13 10 7 6 11 12 9 9 12 19 23 28 33 34 41 42 37 38 39
213 198 173 200 254 199 135 133 94 72 91 78 82 69 41 34 6 29 52 33 32 22 16 12 13 9 9 15 8 11 13 7 14 17 23 25 29 29 26 24 25 26 30
184 190 191 209 183 191 194 160 112 82 84 77 82 90 55 31 17 45 57 49 30 20 30 30 28 16 11 14 9 8 10 9 9 18 15 16 15 13 9 7 9 14 16
193 211 221 224 205 176 196 176 99 83 91 87 92 82 68 43 16 46 49 48 41 30 28 38 34 28 22 18 7 6 7 12 10 18 16 12 10 8 6 5 2 4 10
150 255 218 219 271 184 187 166 122 100 89 102 103 96 85 50 55 62 54 56 50 48 41 36 31 28 24 16 11 5 7 16 15 13 16 9 7 8 10 5 -1 -4 4
123 270 301 228 167 136 156 201 169 155 130 115 132 143 114 83 82 94 70 68 60 57 49 45 39 33 30 21 11 -2 2 15 15 7 9 9 11 12 8 3 6 4 13
186 336 307 252 140 123 119 168 198 155 147 116 132 145 159 129 100 73 82 67 63 74 63 54 36 31 34 34 20 15 0 -6 -3 12 23 27 26 33 23 16 15 16 29
279 218 214 173 133 145 172 177 207 181 197 148 121 158 211 159 132 92 68 96 73 87 77 65 47 38 41 39 39 39 35 15 -5 -6 26 56 83 92 86 62 43 37 53
99 184 154 163 136 150 150 167 186 194 231 164 128 204 158 148 153 134 112 70 90 86 95 79 63 63 51 54 44 57 79 72 52 23 7 21 62 106 121 112 113 114 104
75 79 128 160 120 112 152 172 183 187 163 204 195 173 163 180 146 165 175 143 112 36 91 127 93 72 68 68 95 88 107 114 103 82 65 52 47 48 98 132 147 154 177
104 114 126 164 156 184 148 171 165 177 194 177 176 177 212 206 169 181 170 158 150 115 125 140 91 108 95 111 114 123 149 155 137 118 104 98 93 93 85 108 133 158 184
55 138 110 152 138 197 175 188 185 206 214 229 206 164 169 169 162 137 153 155 199 153 169 237 67 107 123 103 105 117 133 178 182 157 128 118 121 121 119 128 139 143 168
10 72 160 153 168 221 121 150 201 200 226 237 200 152 157 147 181 170 161 168 204 206 150 122 2 65 101 78 83 107 103 136 169 176 153 143 140 133 130 133 133 156 175
51 -45 33 119 142 143 144 152 184 229 285 261 237 221 200 147 180 189 177 160 232 111 55 41 19 39 38 92 100 105 86 85 107 150 159 151 143 149 171 177 173 200 202
28 -1 -20 51 121 159 116 179 153 196 298 314 278 228 148 123 223 171 158 151 166 181 95 -12 -26 0 85 112 106 116 96 82 109 144 141 136 139 150 153 174 194 204 201
31 21 4 24 44 85 108 162 118 134 154 125 175 195 120 96 91 56 102 124 156 89 172 -71 28 31 40 111 111 154 194 189 185 137 148 159 173 182 185 189 190 196 199
39 45 48 46 59 57 54 67 81 94 136 162 175 180 161 143 159 153 157 190 158 143 192 -29 85 60 116 87 86 120 179 249 237 218 209 225 207 200 214 219 232 224 232
5 17 35 60 76 66 81 98 91 84 86 62 104 132 142 162 165 183 189 157 176 176 147 157 124 127 123 128 107 92 132 130 154 157 191 214 219 209 201 216 212 210 208
6 8 17 25 36 60 93 97 83 84 90 95 118 161 176 162 142 132 168 183 182 177 163 184 171 115 150 155 188 166 140 145 127 123 140 125 104 118 136 186 215 206 203
47 40 37 30 28 40 75 101 127 132 119 117 124 117 132 171 200 218 241 219 203 202 194 213 228 234 176 144 159 165 157 138 138 179 196 156 142 153 181 201 184 188 187
147 107 65 56 69 164 284 200 57 98 158 161 154 155 172 203 199 230 243 204 194 232 245 253 259 249 229 229 207 215 209 191 163 164 141 176 270 411 470 419 334 266 272
144 160 189 208 230 283 268 243 207 140 127 141 154 166 174 200 199 192 211 252 234 236 246 229 223 274 286 322 313 266 266 280 285 267 366 329 576 719 722 712 770 846 820
189 189 195 204 199 200 223 194 156 97 117 122 134 132 146 150 170 225 234 253 280 281 266 243 223 205 267 392 416 471 459 428 716 874 889 778 882 984 1085 1022 1092 1141 1121
147 153 168 191 176 173 203 187 130 83 96 177 269 321 287 245 244 254 280 258 259 421 579 721 794 804 896 856 648 507 455 444 569 556 789 894 1044 1001 940 940 951 950 816
137 135 156 171 216 173 239 236 196 138 180 205 287 333 426 360 346 334 226 213 288 441 510 592 578 667 655 621 595 406 350 313 412 471 646 736 591 652 580 613 678 660 567

GFSMA_con_3kmhel_078.txt.gz
Helicity
152 168 162 111 203 185 120 95 71 96 60 82 61 51 48 65 63 70 58 53 42 41 21 22 35 43 38 35 34 27 21 10 11 19 19 17 22 32 42 48 50 56 60
195 180 206 150 158 141 124 73 94 67 51 73 69 65 53 50 43 56 53 37 23 18 38 27 33 31 28 26 22 19 20 10 14 21 27 29 26 34 40 45 54 52 47
183 224 239 207 153 159 138 97 70 50 58 74 69 61 58 43 53 57 46 43 26 41 36 28 28 22 19 23 23 19 17 13 19 22 26 26 22 33 36 40 35 32 31
169 175 178 185 204 243 207 103 83 46 50 71 81 77 68 47 54 50 65 28 42 63 57 46 37 29 23 23 21 20 18 16 16 16 21 17 22 20 21 20 14 10 10
106 191 178 179 237 245 238 143 68 56 55 72 70 79 75 67 60 65 63 17 52 44 47 66 49 38 31 27 28 22 19 14 12 11 18 20 18 15 15 7 4 2 -7
140 164 194 224 209 243 205 141 75 63 60 61 67 85 81 80 69 70 44 41 60 80 72 50 43 43 47 39 29 23 17 15 12 17 17 22 20 13 14 7 3 -3 -13
230 175 164 258 212 233 140 123 54 58 76 69 90 112 107 99 80 76 46 38 48 70 68 71 60 43 55 38 30 22 10 8 18 19 14 23 16 12 13 10 7 6 -2
72 300 251 234 233 235 178 132 56 74 83 73 110 95 148 126 85 62 69 56 86 86 70 60 54 66 71 58 39 28 1 -3 8 20 24 25 26 28 19 16 17 22 10
105 87 270 249 216 224 175 93 94 72 103 81 58 80 136 118 104 88 66 63 81 86 80 70 59 61 60 56 67 56 47 14 -15 -9 27 52 64 69 71 65 53 40 31
161 123 241 232 211 193 116 109 38 92 88 62 76 38 76 107 88 144 82 69 76 84 112 93 88 77 77 60 48 47 74 78 35 8 2 18 47 85 93 96 101 99 92
135 255 257 243 223 171 83 40 48 55 70 48 75 64 100 110 50 102 122 98 96 68 75 90 97 94 78 64 79 63 72 107 96 71 49 36 34 51 64 90 115 124 127
90 63 94 103 130 123 97 114 128 119 122 82 88 95 66 86 117 91 89 59 85 104 95 92 71 60 80 74 79 78 119 127 132 111 105 96 66 58 67 67 93 118 117
67 85 68 36 113 150 119 115 133 139 108 93 96 100 86 66 49 45 53 87 82 76 104 84 75 109 148 110 106 141 111 114 138 154 140 109 105 99 83 78 79 92 98
21 47 57 82 107 158 159 154 140 186 155 142 126 103 106 134 74 56 60 61 80 91 111 144 88 104 146 208 75 113 91 107 112 135 121 125 115 102 96 95 108 108 115
29 -2 3 84 117 134 151 186 166 172 176 165 141 172 157 170 74 97 92 84 105 98 99 156 140 140 120 101 12 71 63 81 24 38 73 129 137 126 118 110 120 131 142
25 15 -48 12 93 53 68 151 141 151 185 201 202 231 221 244 126 113 121 157 162 108 90 142 134 125 81 52 -44 -12 -35 8 37 75 90 93 114 137 134 123 113 112 129
6 23 -11 -28 -62 41 102 95 83 131 160 180 169 238 253 259 221 162 166 167 163 195 170 152 157 112 72 46 12 -12 -11 -1 18 53 99 101 151 123 122 152 171 195 196
-5 1 -0 7 24 28 124 110 101 153 112 93 110 135 172 160 215 154 192 120 139 163 162 29 162 129 88 137 18 -2 26 22 39 44 104 153 183 222 217 231 239 227 220
-2 -19 -25 -19 -2 16 32 55 67 81 79 71 63 93 139 154 145 184 196 173 177 176 172 176 150 171 127 120 93 89 95 83 81 69 109 135 175 204 209 216 206 213 218
3 5 1 -2 5 6 -1 10 24 30 51 44 37 54 58 61 77 83 102 127 120 146 184 220 187 164 157 117 106 121 109 139 175 167 162 119 131 128 105 99 125 120 155
62 30 18 21 24 110 152 103 28 10 16 7 24 47 52 44 49 55 65 82 110 126 136 160 196 151 135 148 153 165 164 165 162 168 208 197 139 143 272 442 338 297 215
180 183 150 181 235 203 242 203 145 86 78 48 46 51 49 53 57 75 89 69 66 66 90 156 195 238 205 166 168 190 182 169 177 198 195 232 403 530 542 560 579 540 515
200 226 235 220 261 247 274 244 189 107 94 83 98 134 133 131 144 149 133 149 131 118 147 152 177 226 233 253 267 218 228 248 254 285 339 358 458 630 736 815 867 791 841
167 186 215 214 222 221 252 236 175 106 149 253 280 256 218 215 245 209 186 196 192 347 332 280 319 346 342 327 327 349 362 374 373 401 405 439 652 646 712 762 805 713 751
182 185 186 202 171 172 228 224 128 131 231 258 246 275 252 235 264 243 137 141 203 312 394 442 485 530 495 534 414 216 234 188 243 234 409 256 296 407 480 540 600 749 692
173 171 181 198 232 165 286 281 215 193 228 222 240 234 275 213 213 218 160 208 331 349 387 434 437 430 425 414 471 314 297 280 243 272 487 480 519 595 581 635 627 554 501

GFSMA_con_3kmhel_084.txt.gz
Helicity
152 162 154 171 187 168 186 147 112 187 187 119 72 106 116 63 94 121 110 43 42 52 59 68 74 75 81 92 76 65 58 50 49 47 40 34 35 42 57 64 68 71 62
154 171 184 172 182 205 172 170 150 143 172 124 66 130 84 120 51 73 76 67 85 66 54 66 64 69 58 70 59 61 59 46 40 35 30 32 42 52 62 66 64 66 61
149 176 213 215 181 148 158 154 188 145 178 120 85 66 139 197 171 96 56 95 111 68 54 62 67 70 65 52 56 55 51 44 34 29 29 33 39 47 56 62 62 73 61
136 139 179 183 184 206 212 190 198 142 143 124 144 158 184 157 97 124 93 80 103 94 82 89 66 59 66 62 43 52 44 38 28 28 34 35 40 45 47 53 60 61 57
137 139 160 176 194 182 165 181 146 96 118 100 141 109 148 98 113 119 78 65 63 80 78 70 61 65 65 58 53 44 38 35 31 30 36 36 37 36 40 46 48 44 35
139 132 149 200 183 194 190 153 120 114 147 68 151 166 129 127 85 93 149 103 92 87 82 88 84 71 71 45 51 27 37 36 31 29 30 34 32 32 35 34 34 29 21
118 153 190 170 192 191 160 134 157 176 112 138 313 280 290 220 60 97 103 78 57 9 29 117 112 105 74 35 44 39 31 38 36 31 29 29 31 36 34 32 24 22 17
91 88 151 167 205 218 189 151 102 187 80 97 260 309 265 224 166 139 86 68 84 33 74 134 74 55 98 102 65 51 37 30 36 35 30 36 43 50 47 37 23 13 22
47 102 131 206 219 238 172 150 225 157 220 106 236 297 263 178 158 116 101 105 95 98 87 85 53 22 124 120 100 89 68 44 37 26 51 56 58 58 62 52 36 18 20
34 74 108 178 165 189 208 211 212 136 171 129 191 166 170 148 174 126 80 48 72 77 71 92 101 92 77 116 81 93 94 77 52 32 28 48 69 65 63 59 52 49 44
93 129 159 175 235 257 210 164 198 275 360 178 145 148 93 115 99 145 102 82 63 82 94 82 116 122 100 68 108 94 101 102 82 61 38 36 56 64 73 72 72 71 80
116 105 113 149 170 202 204 172 216 164 111 148 123 73 68 88 115 122 98 110 71 87 119 103 87 126 117 101 78 63 110 117 122 107 68 67 76 78 77 82 92 92 90
114 89 111 167 218 221 173 172 206 145 94 59 52 35 131 112 110 116 71 89 113 73 106 115 149 118 112 118 104 81 82 124 132 142 124 106 102 90 86 89 88 82 84
101 102 97 146 208 126 165 181 170 172 109 44 37 80 117 146 137 127 99 153 131 199 176 139 120 130 117 117 134 103 119 109 115 141 159 138 103 99 100 74 94 42 4
97 102 75 97 113 179 190 121 113 114 65 40 41 128 138 118 112 141 151 128 168 158 118 149 98 107 141 123 121 125 149 146 155 188 153 149 105 81 75 36 40 51 64
91 90 94 102 68 76 119 245 222 140 116 93 117 129 159 152 169 156 116 129 112 128 102 85 92 100 128 113 106 160 172 125 120 127 148 158 97 58 72 58 51 85 96
100 103 99 84 77 80 80 80 121 146 129 175 163 128 158 191 133 109 43 51 78 94 80 8 10 27 68 120 149 161 181 208 221 222 169 179 143 110 112 114 127 158 195
83 78 81 81 47 66 78 72 55 80 94 162 122 94 91 104 120 119 115 113 135 136 115 -4 44 94 83 72 92 127 130 137 180 206 256 253 188 183 153 124 127 174 190
78 61 57 50 28 16 53 74 113 109 87 97 100 120 157 211 148 151 157 110 110 147 164 140 29 84 78 111 111 114 129 140 144 122 130 194 177 237 269 254 240 207 189
86 71 112 141 169 168 187 156 81 92 89 81 109 104 116 104 102 121 90 103 154 157 150 140 98 128 122 113 138 129 108 153 148 136 113 142 337 347 409 388 333 287 254
245 210 210 207 177 175 169 159 164 156 93 57 80 85 164 281 294 259 112 115 100 93 101 106 124 113 117 125 159 176 146 115 100 207 154 195 168 192 255 297 255 293 300
303 299 272 240 236 195 210 175 138 151 186 219 223 251 243 231 214 172 103 199 202 138 106 104 86 98 129 143 136 108 49 22 72 153 146 82 113 90 157 234 355 288 329
331 321 292 257 244 241 269 192 211 195 178 168 120 167 190 195 217 202 126 157 214 225 225 148 154 165 171 197 140 148 143 136 121 156 95 67 140 150 207 288 346 300 242
377 317 292 286 275 365 244 172 186 215 228 227 208 180 155 173 194 166 160 183 199 202 194 173 189 178 166 153 93 65 92 82 105 195 199 151 178 154 199 228 267 238 206
396 368 307 300 293 372 371 184 170 209 237 253 255 260 230 231 311 267 159 156 173 170 189 187 189 206 247 285 243 114 166 152 198 214 271 202 184 158 166 198 207 249 269
378 263 138 181 246 276 337 205 176 163 205 219 243 234 273 190 257 266 190 171 222 211 186 188 181 197 231 272 335 266 232 232 233 229 255 235 213 188 179 154 159 142 102

GFSMA_con_3kmhel_087.txt.gz
Helicity
155 153 153 167 166 169 142 109 58 38 58 76 98 89 167 182 207 193 134 110 58 8 41 90 96 96 91 82 70 78 93 80 67 68 66 62 44 48 49 54 57 67 60
181 144 164 160 153 148 135 117 108 101 85 109 112 127 190 193 208 212 130 80 52 24 48 84 84 86 84 91 91 66 63 60 55 64 62 58 39 46 53 55 57 67 62
172 170 165 167 152 212 166 111 102 134 172 166 134 199 187 191 169 128 104 80 45 47 57 87 99 79 78 79 75 71 52 52 44 47 46 42 55 65 54 50 61 68 72
174 182 197 194 184 201 196 109 120 171 190 164 152 190 226 150 122 70 60 48 73 93 76 83 99 82 71 60 56 62 56 47 40 44 39 41 46 50 55 57 60 65 66
195 213 189 194 194 162 137 180 149 163 205 152 132 147 198 193 146 94 52 55 102 91 81 77 83 73 61 70 62 48 44 37 32 30 35 40 44 53 55 56 57 58 53
191 205 191 190 205 170 177 200 196 200 216 184 161 180 201 226 120 100 77 88 73 86 82 73 72 55 59 91 68 35 35 20 16 24 37 43 44 46 47 47 45 43 36
218 204 204 180 158 153 173 170 197 163 97 351 246 245 267 145 152 113 120 64 67 84 96 78 54 54 51 68 81 37 16 10 15 18 30 38 38 40 41 40 38 36 24
194 200 169 172 171 164 145 177 182 187 152 166 261 230 273 239 183 145 131 72 85 75 73 59 73 64 97 95 65 49 20 8 14 17 23 35 42 42 39 38 35 30 22
164 155 133 149 147 135 178 191 176 171 204 138 234 286 328 206 188 160 131 107 78 81 71 75 83 83 99 104 81 72 57 13 6 29 34 46 47 46 44 35 32 26 22
125 98 71 111 130 136 189 169 220 261 312 189 197 187 280 242 177 136 143 109 97 82 102 111 97 78 82 76 87 96 86 61 24 11 33 68 66 58 55 54 51 47 40
93 68 83 89 128 161 155 194 229 155 219 315 186 210 280 168 223 173 136 87 99 89 92 120 89 84 102 98 98 87 93 88 63 42 31 30 57 70 65 65 69 67 55
142 89 87 96 105 169 244 209 185 261 260 195 220 173 207 220 141 123 116 140 64 74 84 81 115 107 139 163 122 110 86 76 79 77 74 66 57 61 66 70 69 72 76
130 96 102 100 147 156 209 174 185 211 220 162 224 245 122 206 86 89 94 99 92 96 82 84 92 116 123 117 138 158 123 118 114 103 91 89 87 96 91 85 72 62 65
93 80 70 62 86 98 146 198 173 253 219 246 184 146 126 60 77 127 136 122 129 92 87 96 66 46 81 118 118 92 91 108 117 108 123 118 134 129 135 124 105 83 70
108 100 79 91 110 163 154 176 149 175 281 143 142 118 89 53 84 143 147 136 119 80 117 105 118 79 125 132 112 114 120 100 115 131 130 121 122 147 167 169 111 102 57
95 89 68 70 114 88 79 95 132 207 119 94 73 83 83 111 128 143 108 97 130 156 118 163 126 135 111 137 55 63 58 62 103 105 121 111 108 125 123 149 164 118 103
83 92 82 69 59 61 105 149 184 144 184 224 108 92 100 151 196 188 154 134 136 97 36 78 17 72 69 96 101 117 109 126 137 111 121 148 172 201 219 224 194 135 80
82 78 81 68 52 45 48 87 201 184 110 81 98 100 106 155 161 134 141 94 39 27 58 37 -3 24 42 54 29 51 65 71 118 139 143 126 112 80 134 161 152 134 103
103 95 77 69 42 16 23 63 82 86 86 90 109 114 119 138 111 76 58 60 34 83 94 89 54 49 30 72 76 57 31 45 80 77 70 175 219 200 274 298 232 194 159
226 193 164 179 161 124 124 83 56 56 85 95 54 95 120 78 45 67 109 109 134 112 106 105 113 96 106 105 115 77 56 62 66 145 210 264 268 268 260 274 258 236 141
268 221 202 199 182 147 157 141 148 95 48 110 171 188 235 225 197 173 122 100 88 42 73 89 109 101 100 82 119 167 150 85 85 104 50 116 170 128 110 134 179 243 191
304 286 287 247 216 163 156 146 174 233 306 250 276 205 240 290 285 289 284 301 256 169 141 145 148 178 188 166 138 112 65 67 100 213 139 115 54 168 98 194 314 214 153
397 373 343 330 313 244 238 271 271 273 299 303 259 212 217 215 183 178 237 270 314 320 304 207 208 207 191 187 171 156 188 152 187 218 194 188 182 163 172 162 197 229 179
429 418 445 463 419 327 274 278 318 315 314 311 252 243 159 176 127 184 221 232 255 296 298 270 283 278 243 216 154 143 142 156 166 202 211 177 222 185 167 201 236 236 240
477 474 426 428 480 443 304 267 284 335 336 326 283 254 198 229 178 161 204 207 243 240 232 236 234 243 282 285 214 112 197 168 161 193 260 205 201 177 159 158 165 191 163
447 447 419 388 433 413 265 261 232 251 307 327 352 348 343 245 264 244 227 217 239 198 188 188 203 227 238 253 276 218 171 197 180 197 196 185 197 169 172 123 121 87 78

GFSMA_con_3kmhel_090.txt.gz
Helicity
170 154 131 137 149 158 142 148 162 54 50 30 38 122 136 147 146 183 128 105 79 62 43 49 97 104 105 99 100 96 85 78 81 81 71 69 58 61 59 54 57 55 54
182 161 167 157 142 122 114 126 87 39 -21 -0 52 145 170 176 183 204 175 124 100 66 23 40 87 91 94 79 82 90 88 78 70 69 61 61 45 50 52 58 57 60 65
207 185 166 177 154 129 123 114 79 70 54 74 143 214 220 208 227 238 202 145 102 52 19 40 106 109 96 92 88 69 72 78 63 63 61 56 42 47 52 55 56 53 61
227 211 168 172 173 153 113 109 87 98 58 137 250 236 249 194 221 231 181 147 86 49 46 60 84 95 96 86 94 63 46 47 50 51 48 47 44 43 47 44 53 64 69
229 228 166 161 187 154 122 105 125 129 138 165 253 283 242 204 216 202 132 90 49 61 78 73 83 103 90 83 58 60 42 44 34 39 31 32 33 36 41 48 52 52 55
246 249 199 200 182 159 138 129 121 174 160 169 221 273 248 211 211 159 77 41 32 53 81 95 93 76 56 59 65 37 34 39 35 23 22 23 27 30 34 40 42 44 43
225 263 263 253 219 177 130 114 171 181 209 182 241 249 282 253 183 124 82 54 38 50 85 101 95 72 30 55 79 30 16 20 27 21 16 15 21 28 29 31 35 36 34
246 273 287 261 196 166 113 125 168 207 222 224 220 484 338 286 172 108 108 61 42 93 94 94 84 75 60 82 92 65 14 4 14 15 17 22 21 21 21 22 25 21 22
257 276 261 224 161 130 137 155 176 208 216 222 198 556 485 367 281 175 105 88 100 119 92 83 79 73 81 99 103 81 41 12 12 18 21 29 29 26 24 24 23 20 17
246 261 242 169 127 121 124 135 186 185 212 225 380 274 394 401 319 195 142 116 117 109 101 66 60 65 78 96 99 101 72 42 24 25 29 43 45 43 39 38 37 36 29
206 222 171 134 101 95 97 91 162 235 233 366 323 315 299 274 189 243 178 131 123 93 91 97 74 73 66 81 81 56 74 75 54 33 29 31 46 60 59 57 54 48 41
163 183 126 92 85 69 93 109 126 185 292 206 347 388 373 233 164 220 187 198 132 130 109 109 108 86 94 103 98 81 79 75 71 65 45 42 52 62 71 76 65 63 65
175 131 91 72 61 74 125 172 193 221 291 313 281 360 371 216 144 212 180 183 118 154 142 117 97 112 123 144 125 118 97 101 83 62 50 48 51 54 67 81 89 90 81
160 156 123 68 70 93 108 157 215 214 226 266 321 385 295 240 157 196 146 109 112 127 113 69 96 96 117 127 147 142 140 110 96 88 76 77 84 89 91 104 105 105 119
144 156 84 55 49 89 114 166 213 299 189 376 270 236 222 203 193 137 126 111 114 120 62 63 80 72 92 112 146 140 127 97 89 95 104 101 108 114 111 114 122 130 108
124 125 86 59 48 57 52 89 181 284 215 271 281 270 217 213 168 147 123 140 134 130 95 104 118 176 179 168 137 66 61 95 60 90 98 108 106 98 122 147 142 144 113
103 97 71 79 82 84 90 73 168 165 164 290 220 246 233 175 152 127 172 203 202 154 125 139 160 168 135 124 136 128 109 84 72 27 59 79 84 66 63 82 87 97 101
79 81 90 95 83 64 34 78 80 132 179 225 340 176 160 176 149 131 162 202 192 112 105 58 81 86 54 60 67 105 101 79 72 70 118 115 158 162 212 191 189 175 149
94 89 86 94 89 52 23 44 104 108 155 138 178 171 124 115 80 186 206 216 158 105 53 -14 -58 -2 29 57 74 81 63 49 89 142 179 200 176 220 239 186 194 153 141
190 166 150 133 122 96 37 40 93 159 145 144 139 146 132 124 122 138 121 80 38 21 -6 24 26 58 71 101 105 74 89 114 169 158 270 249 221 250 218 222 222 188 168
219 181 157 149 123 122 82 79 87 103 125 200 243 247 240 227 204 197 87 91 67 88 79 78 62 91 90 113 148 161 142 166 159 228 150 230 196 207 245 240 242 296 254
260 242 228 180 174 126 149 148 169 255 225 225 257 196 176 245 261 283 258 279 213 160 106 103 128 130 132 133 146 124 126 127 106 209 164 219 200 233 234 283 263 292 225
339 323 297 271 277 249 258 294 297 309 336 297 262 215 212 204 226 236 305 336 306 272 240 180 208 224 210 193 164 170 196 204 230 260 213 222 217 205 199 210 261 199 273
441 405 370 324 313 311 301 330 383 366 377 358 354 307 205 193 178 221 280 344 317 357 348 319 292 274 252 213 169 190 215 224 269 289 281 240 235 216 211 219 230 217 202
591 505 469 398 332 316 317 361 415 440 427 410 363 319 317 265 198 192 246 283 329 338 335 321 304 295 290 284 204 161 215 186 225 251 286 240 213 183 169 162 150 141 136
631 551 570 533 451 378 328 332 380 446 487 441 365 356 347 290 234 213 248 241 255 237 216 230 240 283 301 308 326 227 158 151 161 178 185 175 189 158 163 145 132 122 130

GFSMA_con_3kmhel_093.txt.gz
Helicity
114 155 153 187 199 159 139 171 143 162 299 311 138 88 52 106 99 87 74 41 59 58 53 56 48 93 114 91 90 89 83 68 59 59 86 80 65 57 41 41 37 34 41
99 133 155 165 168 160 146 165 147 166 184 167 150 77 45 85 132 112 118 86 93 81 41 49 57 98 98 99 86 90 86 72 53 67 68 68 49 40 45 50 49 38 37
88 127 157 168 157 147 148 159 177 170 173 142 88 82 62 80 150 155 176 181 140 100 61 51 47 86 74 105 96 84 77 67 63 63 49 51 39 42 50 45 41 38 38
110 143 161 160 162 173 143 144 178 153 157 120 112 108 116 88 137 180 205 201 165 119 72 61 67 98 106 93 79 76 67 60 54 42 46 40 38 31 44 47 38 33 33
133 155 149 160 172 183 162 163 166 155 165 163 127 166 142 170 150 183 200 190 158 121 100 57 94 114 92 75 68 55 52 45 34 42 43 38 37 34 32 30 30 34 39
151 159 149 171 181 192 189 169 160 122 154 168 146 184 224 206 264 201 186 164 152 110 78 72 83 86 66 67 68 33 27 31 31 29 32 30 29 26 23 20 22 28 31
175 178 172 197 171 191 168 160 177 163 204 190 223 227 248 252 201 269 190 164 122 75 63 83 102 114 82 51 47 25 16 27 26 29 33 19 23 16 17 17 16 15 16
200 202 201 219 182 194 168 178 174 191 208 197 241 275 230 245 311 282 210 154 71 59 44 77 105 105 94 69 58 44 15 22 20 21 15 15 16 12 19 12 12 12 12
224 211 216 232 231 194 194 172 143 141 173 187 241 268 270 245 186 249 211 157 66 46 42 87 92 96 85 80 89 92 53 18 12 16 23 24 30 32 24 13 7 11 9
215 210 224 242 235 213 167 141 126 144 194 197 250 243 254 248 410 435 210 145 61 52 62 89 88 85 81 92 91 99 69 33 14 15 29 33 38 34 33 26 17 12 8
216 209 215 235 219 181 136 129 127 160 189 210 244 311 308 373 557 732 381 197 109 63 72 89 83 69 67 85 90 78 60 53 30 22 29 31 44 49 51 51 42 36 28
227 201 209 206 150 156 116 113 122 126 141 210 239 259 338 544 662 555 304 173 143 110 93 102 87 84 83 83 74 71 71 57 43 23 29 41 52 54 55 58 59 61 57
218 192 202 172 126 130 107 111 108 122 130 173 265 333 396 413 336 263 256 267 183 140 114 99 92 90 91 97 83 82 77 73 58 52 55 44 43 59 73 87 82 73 70
155 152 143 139 135 98 100 102 105 124 181 221 279 343 449 412 369 272 285 271 190 206 137 107 80 89 109 117 107 111 103 93 83 69 72 75 59 62 68 72 74 79 78
148 121 129 157 140 123 102 92 111 159 229 210 253 274 376 467 243 237 191 204 178 200 114 114 107 98 105 131 123 140 123 116 90 78 82 97 105 107 101 86 93 86 84
154 157 160 144 121 114 102 92 112 138 171 202 244 379 529 395 301 188 197 131 81 103 86 127 113 78 77 90 57 72 65 59 57 70 92 86 103 131 132 130 111 110 106
136 135 144 111 71 94 61 58 46 31 68 252 317 317 336 392 269 267 207 104 128 129 152 127 181 163 166 159 155 128 128 107 103 90 86 80 104 105 102 75 80 74 80
132 145 144 97 88 82 74 60 26 65 225 233 321 341 278 297 312 315 216 151 153 261 232 149 132 127 129 113 97 85 84 100 166 235 235 205 116 108 191 187 215 206 198
138 143 127 75 69 75 78 51 55 89 130 157 182 324 446 229 286 241 224 201 156 164 222 172 123 100 95 91 52 50 106 231 190 197 213 215 273 249 264 261 215 192 228
216 203 166 129 106 83 59 20 57 83 98 125 203 265 227 264 233 260 210 197 212 188 206 187 132 82 74 6 44 112 151 207 201 207 228 228 269 284 266 262 229 215 207
241 218 171 161 128 97 68 64 64 120 207 249 267 341 402 315 219 183 190 139 134 181 170 94 91 74 99 145 132 139 167 192 307 283 276 266 248 256 220 220 254 250 237
256 265 221 180 148 110 121 107 93 210 252 223 187 229 268 340 320 332 354 334 262 115 115 79 89 99 123 152 158 145 138 170 193 248 246 244 224 272 270 221 249 292 263
277 266 263 231 201 156 164 198 233 248 272 273 280 236 237 258 242 278 350 303 352 301 258 171 177 152 147 137 148 149 181 217 255 295 248 238 267 247 268 263 272 265 241
351 292 287 279 241 224 225 250 292 244 300 313 327 270 255 266 271 303 315 387 296 337 312 273 255 241 219 177 173 190 218 220 258 279 251 229 248 248 230 203 239 226 208
459 418 385 364 320 274 275 306 299 335 365 378 325 294 284 297 249 220 269 334 314 382 363 376 402 365 338 306 223 197 198 220 227 224 267 236 214 186 211 222 223 226 234
527 516 561 514 468 429 341 316 338 361 428 430 419 418 385 324 317 322 281 282 309 242 235 312 297 360 345 304 354 267 178 222 223 236 219 217 213 199 199 186 206 219 206

GFSMA_con_3kmhel_096.txt.gz
Helicity
164 163 156 149 188 184 171 186 180 162 172 193 224 268 254 156 43 18 113 54 55 70 64 43 49 48 79 108 107 86 75 73 60 55 61 61 48 51 55 38 31 28 27
170 160 143 134 174 162 129 137 142 163 162 181 215 236 221 141 11 24 131 78 65 46 67 45 52 60 85 93 92 73 65 67 60 39 53 56 41 44 34 22 26 37 32
159 171 164 136 154 134 130 158 179 213 217 219 185 159 153 56 20 39 116 101 95 82 69 46 49 69 80 93 88 74 64 56 52 65 46 47 33 29 24 26 30 24 29
147 173 171 131 152 142 137 159 178 186 202 179 131 123 177 75 17 48 97 133 129 129 108 74 63 68 80 93 89 64 59 59 48 50 50 33 42 35 27 25 34 28 22
161 165 170 147 165 174 165 178 178 184 183 169 155 94 150 62 42 55 62 158 153 148 134 86 79 88 102 92 88 71 53 43 37 38 41 39 36 29 31 26 32 24 15
166 177 184 175 170 184 185 206 183 190 201 181 177 131 139 47 73 85 87 134 207 170 138 121 128 127 121 96 79 75 41 47 27 24 38 36 33 30 31 29 22 18 18
170 190 197 193 179 195 190 194 204 228 215 225 232 191 190 137 118 127 90 131 200 162 142 125 131 126 107 97 85 69 40 37 24 13 29 32 24 26 19 24 21 17 14
188 202 211 199 192 216 210 215 218 245 219 213 224 246 164 176 156 167 203 165 196 185 129 107 103 101 111 118 78 68 44 29 28 22 24 31 20 13 13 16 20 19 13
223 208 209 211 218 215 204 224 227 197 218 209 246 227 212 182 219 206 226 211 282 193 130 97 69 92 101 109 99 80 38 31 29 27 26 15 10 15 17 16 21 17 11
193 212 184 203 203 224 206 228 181 156 175 202 255 266 219 211 203 199 226 404 267 198 140 75 69 79 84 105 97 101 60 36 25 26 30 23 39 36 38 30 22 18 15
198 210 200 195 229 220 182 231 174 145 154 147 182 281 292 249 245 249 216 308 242 162 154 56 79 80 75 88 86 85 67 42 28 29 21 37 35 41 45 43 40 31 26
322 172 199 220 219 213 210 213 156 131 132 142 168 200 227 280 301 283 286 317 265 338 180 62 87 82 85 85 74 81 77 51 33 29 27 26 26 36 43 55 54 38 29
310 220 244 246 229 201 198 199 153 125 126 146 170 193 217 232 269 280 324 437 505 316 208 84 91 90 94 95 77 82 81 71 51 46 41 36 40 46 43 57 58 46 49
280 252 240 215 201 222 169 133 123 121 106 115 138 159 198 257 336 376 417 564 507 304 260 125 106 105 99 97 87 88 90 75 64 77 66 53 43 49 57 69 78 81 78
254 199 176 176 173 170 169 155 121 108 115 122 168 207 239 277 343 491 505 266 287 277 222 162 117 101 87 85 72 94 95 78 83 92 86 66 63 72 69 83 92 100 92
201 148 136 123 161 182 166 145 113 105 111 137 179 257 292 315 373 513 342 233 308 309 162 157 127 109 118 99 83 102 80 92 90 77 64 62 73 90 114 125 116 105 97
161 133 120 184 187 173 166 156 114 117 106 135 177 222 281 354 433 356 320 246 242 203 163 189 179 139 135 92 89 65 63 85 134 128 111 110 130 154 141 157 170 176 168
166 123 146 178 145 118 125 119 97 96 83 104 103 96 376 448 416 354 211 217 156 115 86 105 119 143 178 162 120 109 167 212 184 215 233 257 252 271 198 212 210 211 205
155 128 146 126 108 107 136 98 92 73 66 48 63 182 230 318 448 254 270 241 161 140 128 212 192 240 256 183 207 182 194 167 192 241 295 306 268 259 204 156 184 169 169
173 179 189 181 163 165 156 82 62 13 51 54 170 178 325 340 413 368 319 259 247 217 159 198 247 210 168 143 128 128 188 211 199 243 381 369 281 273 216 214 210 225 271
250 214 189 174 159 156 136 77 55 12 100 179 183 296 300 290 249 479 292 300 245 229 174 235 191 249 228 195 162 191 247 238 316 270 268 235 224 190 235 242 269 284 211
278 246 224 187 168 151 169 143 75 104 143 195 212 243 388 464 621 590 616 493 375 205 199 182 189 206 203 206 221 240 233 224 220 238 257 247 254 265 246 256 241 279 252
273 263 229 196 193 164 183 194 216 165 194 211 179 185 212 335 437 365 460 462 489 433 342 208 235 256 195 193 186 192 207 235 237 252 267 280 262 271 286 282 264 241 209
345 287 248 210 193 187 213 231 242 208 248 280 268 218 205 213 258 329 365 429 457 398 346 355 357 272 234 220 208 191 230 302 324 365 290 245 226 248 260 268 296 266 221
404 347 297 254 225 223 253 277 241 256 316 282 297 263 285 284 278 281 373 430 419 446 469 438 421 404 336 275 258 235 256 275 263 270 329 252 265 266 247 251 288 273 224
267 292 328 310 301 269 274 277 278 289 328 340 340 323 337 257 258 271 288 293 356 348 321 428 412 472 410 421 363 244 189 185 222 213 277 233 190 208 215 190 199 186 189

GFSMA_con_3kmhel_102.txt.gz
Helicity
125 102 103 102 120 109 123 127 124 107 91 73 62 72 77 53 83 93 81 126 98 70 56 29 76 83 92 107 129 140 132 141 114 92 91 93 83 83 76 78 59 53 36
114 152 162 128 103 129 152 128 151 117 95 82 82 99 81 55 80 92 91 82 115 80 62 56 78 75 71 90 116 135 140 138 126 93 83 81 68 63 67 78 52 37 30
129 146 165 154 151 135 154 132 167 143 112 108 101 110 82 86 83 87 108 110 120 80 80 53 89 78 67 75 104 116 111 108 97 69 66 64 59 65 77 58 39 29 22
143 164 172 157 189 192 169 148 194 206 170 111 103 106 92 89 94 99 103 99 113 36 105 127 77 61 60 56 76 84 99 105 72 71 89 86 89 85 77 48 29 36 37
178 206 195 156 190 210 165 152 190 204 179 119 95 96 76 93 101 105 163 90 87 37 96 31 78 70 54 64 72 65 93 98 81 80 73 95 98 84 65 37 33 29 27
217 216 209 203 199 199 166 157 155 175 161 132 139 127 87 90 100 97 160 139 37 -3 84 79 52 57 59 84 78 64 94 90 77 83 82 92 77 73 50 43 31 37 41
205 228 233 230 197 192 197 168 168 176 187 176 213 192 162 96 99 108 94 48 5 57 168 58 77 74 90 98 86 81 86 82 72 71 67 73 69 67 57 51 36 34 31
195 236 265 256 196 203 191 173 164 226 213 214 281 262 181 160 97 96 78 16 64 75 87 123 53 55 74 78 79 101 92 71 76 60 66 62 67 70 52 48 39 36 34
195 260 253 271 208 183 188 158 171 194 262 248 241 239 211 178 180 136 79 69 70 72 97 84 147 90 67 67 108 108 101 90 74 78 60 59 61 57 58 44 34 29 29
247 246 279 308 238 215 174 150 154 153 189 252 255 189 142 162 164 156 149 61 41 36 52 102 133 147 122 73 84 85 129 114 99 80 76 70 61 60 57 47 28 25 30
291 239 293 249 224 187 179 154 124 112 179 245 285 272 175 149 124 105 171 188 160 91 100 145 138 169 181 116 85 107 142 110 113 90 78 79 75 64 51 38 34 21 32
322 221 236 342 292 325 247 199 153 120 168 212 250 244 166 206 152 162 135 121 158 172 160 196 243 238 233 182 109 138 143 112 115 102 86 81 78 78 61 41 47 37 40
306 240 277 348 339 336 197 209 138 143 168 213 250 238 175 150 137 133 151 156 210 179 195 230 310 264 343 272 191 139 117 104 115 115 92 75 70 74 63 48 32 36 45
158 150 179 240 296 341 243 51 179 173 157 175 173 182 177 139 77 156 116 225 195 182 216 237 220 369 419 259 159 125 82 110 93 94 90 84 61 62 63 59 32 45 54
82 64 152 136 101 -100 -47 171 228 180 184 204 149 136 151 127 132 156 134 183 196 227 183 206 249 269 206 172 112 137 135 115 110 88 78 92 92 70 58 50 47 69 83
152 171 221 250 231 299 108 238 229 188 181 180 151 115 102 103 117 142 140 137 178 185 162 229 266 265 427 267 242 234 86 148 127 99 89 82 102 104 93 72 84 97 89
171 222 215 210 207 203 191 179 159 148 141 141 127 126 101 105 126 126 123 116 134 156 228 255 253 330 398 303 289 142 112 149 191 165 115 76 114 118 100 91 102 132 153
215 203 235 159 105 94 120 90 145 161 146 148 130 111 98 119 116 119 146 153 198 182 240 274 349 405 302 159 150 250 138 311 217 243 188 187 177 195 220 232 242 252 262
157 175 134 331 272 93 93 118 120 146 125 112 126 124 126 118 119 126 165 202 178 240 275 327 354 271 197 173 124 277 373 339 289 274 326 316 280 287 295 291 297 301 312
124 151 155 290 189 197 136 133 144 126 92 71 57 87 79 95 104 141 195 175 247 258 331 337 281 263 335 261 359 432 410 271 317 317 364 349 323 338 398 324 284 279 285
157 204 333 358 346 324 243 187 151 102 90 99 136 113 115 110 29 112 154 199 218 318 357 333 280 241 258 289 289 324 421 422 384 331 388 359 273 268 297 362 369 327 362
497 391 453 357 341 359 272 185 148 142 158 137 120 123 102 148 142 148 198 211 243 380 384 400 265 257 282 235 276 289 456 444 438 347 477 518 359 311 327 335 306 311 319
834 829 676 474 318 344 298 271 244 167 176 183 164 128 110 95 130 204 433 501 560 584 399 278 210 234 275 265 395 389 361 408 363 233 341 444 455 458 372 351 306 246 222
428 562 803 434 421 363 319 269 243 214 200 200 209 164 126 132 138 179 401 476 510 567 452 407 314 343 284 374 366 371 419 474 420 542 485 474 463 447 397 285 225 238 253
328 776 707 541 441 368 295 283 238 235 248 275 256 227 180 152 163 199 333 474 550 695 635 526 562 477 477 468 375 375 441 528 485 462 452 409 406 412 393 370 329 278 249
268 248 389 552 503 376 310 289 269 247 276 271 279 287 279 233 253 241 262 359 435 371 446 607 717 675 538 593 528 518 401 511 518 429 363 387 404 419 410 334 306 252 186

GFSMA_con_3kmhel_105.txt.gz
Helicity
103 90 82 66 110 90 112 75 106 125 98 89 88 81 72 89 49 129 148 184 134 89 62 83 72 26 80 126 118 128 139 152 135 129 130 119 112 100 86 69 44 60 36
147 117 108 93 51 124 110 103 58 135 121 107 100 88 94 89 89 124 100 147 138 128 82 62 98 55 82 100 126 134 141 150 142 137 132 129 112 108 104 84 74 52 43
124 120 131 170 91 125 138 122 117 98 111 124 124 104 93 95 115 116 113 103 140 128 54 57 56 65 73 95 105 128 140 148 154 143 125 115 113 107 105 89 77 34 35
126 151 148 171 135 109 191 171 112 111 114 137 150 129 98 109 114 114 118 129 133 136 93 130 194 29 53 108 87 118 142 134 137 126 111 87 85 88 89 93 65 49 26
105 159 193 222 168 142 203 227 158 144 145 140 145 129 115 111 118 93 96 113 126 117 147 79 53 4 73 75 93 94 95 104 116 100 86 99 103 111 104 78 48 41 40
117 165 189 224 237 213 227 235 205 155 161 112 144 194 143 118 137 129 96 123 112 132 111 128 133 100 57 45 86 74 83 95 101 86 62 99 107 107 101 69 41 45 33
140 176 194 205 239 257 200 229 194 158 188 172 210 174 166 125 122 119 108 106 119 168 188 144 191 189 68 56 74 84 79 81 87 88 77 88 99 95 90 78 47 48 46
194 211 189 218 190 266 190 233 238 213 204 207 223 268 169 159 192 157 151 108 97 154 103 81 192 95 59 87 71 87 82 84 75 90 88 72 98 95 82 67 46 46 53
193 253 282 218 255 281 275 306 229 201 210 218 206 231 204 180 204 201 134 117 90 63 70 63 31 -2 42 74 96 94 100 117 87 96 95 86 100 95 83 65 50 42 48
153 214 280 233 258 282 283 298 236 189 149 221 207 148 134 182 137 151 178 123 115 111 108 93 67 75 112 89 90 114 122 141 130 96 99 106 96 82 76 65 61 53 48
153 178 222 292 334 267 289 240 172 133 145 164 215 234 132 192 165 155 100 127 140 124 110 90 118 58 77 134 85 103 133 156 141 114 95 113 89 87 86 76 75 61 51
203 191 220 276 308 318 282 250 262 87 146 155 150 185 190 222 218 173 121 52 107 177 170 122 78 63 107 120 139 138 143 142 145 128 115 117 101 95 89 79 81 79 54
181 218 256 276 301 240 273 272 183 87 103 169 172 172 179 154 164 126 119 101 118 172 170 151 128 129 135 142 194 174 199 186 128 113 128 123 124 110 100 90 86 70 49
99 191 229 251 180 224 269 247 341 233 190 187 156 153 167 151 159 141 126 104 119 148 188 186 199 178 199 214 224 221 220 220 164 130 139 133 128 119 106 109 95 77 57
94 170 203 176 192 214 235 264 289 216 192 120 136 119 159 177 145 142 148 185 155 119 128 132 173 188 230 291 310 366 443 259 218 123 123 146 118 114 104 102 101 99 94
102 97 136 202 231 182 220 272 295 212 119 96 97 118 136 181 136 132 137 166 189 190 186 141 145 141 195 257 289 356 261 240 135 116 107 133 118 98 111 111 99 109 113
70 86 201 201 179 246 288 205 151 115 9 61 113 119 153 140 142 139 133 127 153 174 169 177 136 162 163 239 285 248 200 210 225 194 182 142 134 130 125 120 102 89 111
87 128 159 157 155 189 257 262 116 -32 33 35 48 115 132 94 88 112 133 129 122 142 160 206 210 228 223 244 316 325 246 212 351 272 132 146 152 142 146 130 124 134 161
140 155 149 135 133 143 214 158 84 -50 30 50 115 108 115 106 122 130 148 135 128 153 199 303 285 245 274 242 326 395 446 456 359 309 324 293 263 225 242 245 268 275 291
163 159 135 153 145 130 140 169 258 156 150 131 128 114 101 93 91 117 139 108 154 172 164 235 289 303 311 317 374 556 507 438 465 421 360 354 346 383 363 369 358 356 371
308 488 245 274 213 283 286 260 84 167 155 156 194 161 169 166 170 154 124 116 152 206 232 277 252 290 348 405 398 401 529 505 473 440 365 419 429 441 376 377 381 361 382
276 427 398 371 335 325 394 349 316 232 236 223 190 159 132 129 98 105 79 64 141 209 285 258 282 238 344 410 420 541 594 536 498 378 484 463 419 469 442 395 340 349 287
162 366 426 412 389 350 378 294 357 336 294 276 228 178 128 85 92 100 169 276 349 366 297 264 274 308 326 450 501 517 474 475 406 405 446 517 457 460 470 439 310 353 348
275 222 493 573 531 531 477 364 404 375 354 324 251 219 154 120 112 99 170 271 278 324 365 353 445 518 515 472 380 430 481 529 489 622 521 537 479 455 456 390 263 374 378
297 251 302 518 762 879 660 538 496 433 394 357 308 256 173 118 131 112 167 246 334 390 513 598 611 598 641 582 518 548 497 494 410 425 485 522 517 596 518 427 392 425 372
179 259 298 260 305 407 784 398 471 372 335 309 285 250 272 154 170 163 206 235 355 350 350 519 722 815 606 619 665 481 436 522 587 441 361 474 600 645 556 510 436 373 279

GFSMA_con_3kmhel_111.txt.gz
Helicity
136 137 153 173 171 165 155 160 170 155 136 130 94 122 110 92 77 104 122 98 84 103 104 75 101 123 182 144 90 64 71 113 137 141 144 132 143 124 129 120 104 97 85
149 140 159 211 184 192 192 163 181 178 156 132 103 110 115 111 95 112 115 120 90 113 104 78 97 123 162 199 134 104 59 111 138 141 139 142 143 127 126 128 100 81 69
143 115 139 185 203 195 211 190 160 180 172 157 141 130 137 133 117 121 144 139 135 123 114 94 114 142 164 209 131 54 69 113 132 135 155 142 146 137 128 117 99 81 58
161 162 165 172 231 243 256 223 190 197 175 197 197 183 173 151 132 124 150 150 164 167 132 109 125 164 142 208 123 51 83 104 123 141 154 155 153 136 127 109 96 85 60
147 172 170 185 197 268 306 285 278 250 243 230 230 220 188 161 162 160 155 172 164 182 170 118 106 130 162 120 114 108 74 32 114 140 159 155 152 140 120 101 96 89 56
149 168 165 162 191 240 323 371 312 310 300 303 265 225 181 168 177 167 169 177 181 196 190 153 130 136 189 137 163 105 123 7 95 125 156 156 155 127 118 86 92 88 49
167 163 202 204 185 209 249 366 408 349 392 358 388 305 308 256 176 150 182 209 201 180 175 176 142 143 147 163 200 173 133 -11 73 110 154 156 159 128 113 85 75 83 55
177 199 237 243 241 229 247 309 391 462 438 390 367 389 279 272 220 201 200 211 205 205 181 157 125 128 134 182 220 177 143 48 90 126 144 144 146 128 106 96 134 87 71
159 189 169 226 276 304 286 363 407 342 649 246 254 274 279 260 275 237 190 211 223 222 174 157 134 125 115 136 176 190 80 80 36 132 147 143 124 111 85 140 115 93 74
61 164 294 172 243 296 268 301 434 340 497 216 143 167 168 190 243 223 188 190 216 214 178 161 128 122 127 127 119 165 115 86 111 130 128 131 106 97 82 143 117 101 92
64 71 221 324 203 294 282 381 445 381 324 530 625 161 225 250 237 264 198 197 164 156 180 173 124 111 135 163 135 175 122 125 147 125 114 110 100 94 97 126 119 102 89
59 48 98 318 207 217 267 323 344 286 382 338 342 279 294 261 209 291 302 218 147 141 165 187 148 140 148 129 175 136 65 87 83 91 100 121 105 92 98 105 111 103 90
58 55 44 177 230 177 175 210 252 311 360 368 371 332 267 234 186 222 296 277 250 182 137 155 165 176 149 160 119 100 80 61 85 134 109 147 133 103 92 114 121 95 85
93 87 60 49 132 200 218 163 166 268 389 299 276 206 234 227 188 271 289 349 281 250 186 171 171 154 158 126 81 100 69 64 51 75 114 168 153 152 130 156 125 116 94
100 65 116 36 112 158 187 -56 72 250 287 355 352 245 287 190 217 242 245 291 302 190 162 136 165 117 129 155 101 106 62 28 74 80 103 169 192 164 149 156 140 109 102
58 69 74 118 99 144 102 56 66 281 351 303 241 278 81 88 205 195 268 215 238 237 173 150 134 135 116 154 148 140 140 98 104 129 163 169 146 157 159 150 172 140 98
67 78 84 58 55 83 127 40 193 296 294 309 305 282 134 119 204 213 348 208 233 237 165 141 139 157 107 119 157 150 167 159 145 143 180 156 183 211 175 192 176 149 113
119 154 147 93 68 78 79 118 181 187 259 237 206 210 150 215 161 240 261 272 172 188 159 156 181 146 107 80 107 150 147 190 153 138 182 209 180 148 155 179 171 124 124
166 188 153 172 182 109 52 142 116 136 136 161 214 183 228 176 174 215 233 269 247 199 165 195 176 195 147 116 153 163 263 305 289 185 223 247 238 181 190 187 215 138 141
204 283 166 150 71 205 216 177 130 176 222 223 181 215 189 114 91 234 283 268 179 179 148 162 171 186 186 176 187 283 317 359 374 331 383 340 316 266 287 249 181 151 154
262 252 285 222 233 437 355 153 129 122 239 207 241 203 189 207 212 177 127 131 159 170 165 140 162 183 191 219 243 327 389 440 458 421 488 559 582 524 475 412 273 309 283
193 210 315 209 199 268 249 303 133 115 231 232 280 237 259 366 284 199 220 276 240 149 145 155 153 160 156 217 284 387 438 399 425 527 693 697 730 696 619 499 391 380 263
217 243 266 210 218 236 322 199 475 478 422 387 346 346 331 276 206 245 268 274 290 263 233 196 147 142 173 203 286 332 379 459 531 492 688 792 743 750 606 537 612 520 422
156 247 304 249 193 223 384 315 206 610 638 620 539 446 327 248 207 187 231 224 249 227 218 201 177 130 158 204 311 359 423 629 653 703 691 750 720 758 681 538 510 517 413
105 114 195 244 198 252 288 329 234 286 530 663 594 498 410 380 317 221 215 249 210 205 190 199 253 319 324 186 421 575 587 613 595 543 646 690 652 707 640 616 442 445 331
-3 3 51 121 210 223 283 317 272 91 224 472 650 612 494 385 326 316 285 229 226 233 204 190 203 270 342 551 590 408 553 531 572 618 535 682 651 671 591 549 397 477 342

GFSMA_con_3kmhel_114.txt.gz
Helicity
147 159 147 158 154 163 161 156 154 148 146 143 131 123 112 116 93 97 112 61 57 61 79 66 82 104 113 124 152 137 128 90 82 121 125 145 138 141 126 139 125 117 89
157 168 169 174 178 182 176 175 173 160 156 156 140 154 138 115 122 128 116 106 63 31 57 73 90 94 117 162 164 187 141 131 76 124 128 137 143 131 124 130 122 117 99
155 165 184 205 191 198 188 183 166 168 170 174 146 158 162 134 127 138 142 129 95 83 94 76 77 91 113 155 196 225 98 151 120 131 132 137 145 148 130 123 118 102 78
143 153 186 170 171 217 216 193 196 213 176 183 166 162 171 170 153 167 167 162 153 142 101 86 67 90 127 150 165 196 119 157 117 110 133 139 145 146 145 122 111 93 74
103 134 138 172 196 126 226 229 215 235 241 213 190 189 195 193 193 198 184 187 169 177 155 117 83 87 135 163 137 112 122 122 18 88 138 153 153 145 142 128 107 90 69
170 143 123 148 189 231 223 256 238 271 284 236 249 241 229 208 192 197 196 197 192 186 162 146 120 111 105 133 135 117 86 57 23 52 97 158 162 157 147 133 107 88 72
140 175 147 122 145 170 191 235 265 297 337 358 397 339 329 257 215 175 199 196 197 190 179 150 142 134 121 116 115 139 111 103 94 135 107 145 163 163 155 139 96 73 54
96 134 151 172 141 149 171 226 219 242 247 336 304 261 347 326 269 189 193 180 175 197 203 157 141 139 124 110 110 87 126 102 69 72 91 144 178 174 164 146 108 87 98
86 85 97 113 151 189 166 175 232 202 209 380 411 276 645 297 232 196 171 178 193 221 209 185 146 109 113 129 124 127 132 140 112 90 116 146 196 181 163 149 109 139 111
110 85 78 98 140 174 166 162 227 244 343 389 557 488 94 206 105 108 165 176 196 212 220 189 174 137 115 125 116 127 136 101 141 49 85 136 187 174 164 140 120 138 109
80 114 106 94 138 187 204 157 253 340 367 449 518 426 305 262 333 349 108 126 198 168 180 187 187 162 138 99 115 92 138 109 105 46 118 209 164 159 138 130 114 108 114
52 87 130 143 158 188 261 192 240 264 335 385 390 317 303 385 350 490 409 279 158 172 142 179 188 191 139 135 129 133 127 165 98 76 81 192 154 151 130 117 104 98 113
44 95 137 157 155 143 186 246 296 320 291 311 321 321 311 342 335 306 363 256 251 213 178 135 152 173 151 139 129 160 148 140 102 101 140 211 152 143 125 111 104 88 115
24 63 64 107 128 140 108 167 233 311 301 243 288 490 277 247 292 355 298 324 259 240 237 204 157 154 140 148 120 123 97 126 61 83 86 139 152 128 131 121 110 95 109
-5 13 50 63 111 104 104 104 168 206 276 273 175 131 228 247 252 288 245 244 270 217 210 230 209 161 148 135 124 141 127 115 81 25 120 117 137 126 145 159 156 138 111
30 34 47 46 67 89 124 99 158 145 223 266 255 139 184 206 238 233 252 224 256 269 230 225 194 166 134 126 105 131 103 99 49 80 102 76 89 127 154 162 172 169 150
48 54 81 69 52 51 91 135 144 105 125 120 76 179 197 231 233 236 244 248 250 286 226 236 207 185 144 124 122 119 122 114 28 13 74 50 97 143 158 172 188 179 181
63 76 93 95 65 83 109 89 169 105 112 112 126 163 157 274 271 240 253 232 205 181 237 258 192 155 133 108 92 118 155 129 129 50 74 108 136 191 205 193 200 193 199
73 109 120 140 137 107 187 282 158 112 93 53 135 206 132 212 262 268 191 163 130 142 174 187 204 162 169 144 146 162 170 200 186 117 96 126 163 193 224 228 263 206 191
117 132 176 183 183 172 167 233 242 162 111 4 101 172 152 155 180 160 177 141 44 -41 230 267 293 221 193 142 149 188 228 232 210 190 169 131 98 119 166 211 211 182 162
137 154 196 270 245 148 122 207 163 146 89 -126 147 250 246 205 109 83 153 183 189 201 274 265 307 202 172 182 157 204 203 274 269 232 226 213 188 180 180 246 224 213 207
170 228 266 253 247 145 228 240 189 160 229 293 293 287 273 291 217 164 277 273 196 235 268 265 191 153 146 146 166 239 289 285 243 219 277 270 216 307 350 327 375 362 314
167 202 271 320 324 282 248 252 334 273 335 268 485 433 327 320 206 267 392 376 339 288 232 169 160 171 165 159 208 237 274 271 253 294 385 389 331 408 477 515 458 495 465
40 72 153 240 332 376 372 321 315 187 184 374 412 510 439 425 351 269 293 404 326 284 280 231 220 263 233 209 201 202 263 401 401 432 413 409 493 579 649 684 642 679 579
31 47 44 87 169 245 326 326 300 295 266 320 167 414 524 399 405 328 235 251 306 333 283 240 202 178 177 175 119 315 415 449 341 346 497 546 603 671 687 724 738 748 725
-3 22 57 82 110 99 157 185 207 246 278 174 202 270 364 319 360 316 260 232 277 297 255 250 241 193 194 185 347 242 332 389 521 400 398 565 603 719 594 650 696 677 582

GFSMA_con_3kmhel_117.txt.gz
Helicity
120 125 136 140 143 176 170 173 168 168 156 149 141 134 111 115 120 106 101 56 60 69 42 21 17 27 52 78 87 118 137 182 163 70 40 126 143 136 130 126 114 120 108
115 123 122 122 130 176 179 193 188 183 171 169 144 148 125 115 125 123 119 92 74 69 70 36 38 17 32 53 89 113 137 159 145 69 72 124 137 159 152 149 132 119 101
90 113 124 134 143 178 189 183 192 198 168 165 147 161 161 144 134 133 118 119 89 61 71 48 48 62 51 72 99 123 161 152 170 118 117 125 122 159 157 143 140 120 97
223 139 144 150 136 184 192 180 178 180 157 144 129 158 162 161 155 153 132 127 130 130 89 87 92 85 62 73 104 125 146 186 227 196 189 131 135 146 167 146 131 120 102
103 134 191 140 145 180 191 198 123 176 165 156 150 154 176 175 161 159 148 141 138 137 138 119 128 105 78 63 104 109 108 182 204 169 124 118 135 148 173 157 132 114 97
75 59 81 122 172 144 158 204 141 156 193 90 119 164 194 173 174 174 151 160 159 147 141 140 158 149 104 82 104 112 78 91 120 156 176 21 135 143 173 166 148 116 97
98 78 48 61 88 125 124 161 177 157 189 191 267 252 110 159 156 175 221 194 152 145 152 146 153 166 149 108 100 114 79 56 60 108 83 -23 122 167 171 167 155 132 104
93 92 82 70 89 111 151 127 143 173 189 243 203 236 200 270 287 251 174 181 157 157 127 136 139 167 166 150 126 103 91 72 60 91 89 89 91 157 183 175 162 140 109
107 70 77 69 68 100 127 160 161 154 171 209 226 239 290 328 286 400 233 117 113 142 159 146 148 168 189 165 135 114 94 73 64 55 91 120 123 141 186 186 178 157 122
94 111 89 76 64 67 117 133 155 171 175 217 291 327 402 330 347 385 372 243 77 129 181 172 159 191 196 173 126 118 105 74 57 70 125 111 130 197 134 195 184 165 138
82 93 97 122 100 87 94 134 163 178 195 211 328 357 417 452 424 429 380 415 308 75 231 275 223 215 225 185 154 113 100 67 73 81 101 93 101 157 131 197 200 173 136
40 82 102 98 111 124 105 111 143 192 198 244 299 328 410 465 472 441 361 316 237 216 234 247 302 220 210 214 190 134 119 87 64 64 65 106 59 171 206 167 206 165 143
3 44 84 101 105 100 113 125 131 145 216 263 306 301 326 385 385 333 301 308 369 312 137 171 188 217 230 225 199 145 106 112 97 113 120 176 110 211 207 175 190 159 123
12 25 38 61 81 91 90 104 107 106 140 214 255 300 328 330 316 331 357 404 377 259 163 173 177 190 201 215 182 141 123 129 128 126 156 137 174 104 256 237 176 148 113
29 31 29 23 47 81 74 94 105 131 143 198 210 241 257 263 300 339 346 392 286 214 188 131 183 137 156 200 188 166 148 92 125 138 133 91 134 79 305 229 173 144 126
44 37 32 25 33 46 69 85 87 128 125 161 181 172 218 247 279 303 329 312 288 237 138 70 165 189 161 182 194 159 139 111 100 125 144 124 151 226 265 212 137 143 143
48 46 40 26 25 49 63 74 105 82 135 131 150 174 195 211 262 220 195 197 227 234 215 111 126 177 184 155 182 173 149 139 133 87 113 96 103 79 134 139 198 166 161
66 45 35 33 48 64 74 78 107 132 85 128 151 190 157 156 91 55 53 163 240 264 218 131 81 171 150 175 175 176 169 140 120 85 75 89 119 127 146 169 164 202 173
65 99 100 85 97 98 110 122 122 128 137 84 134 155 132 111 68 120 172 210 222 341 295 234 201 191 195 167 179 172 159 149 138 85 94 81 65 43 21 62 168 202 180
93 140 158 148 155 111 135 182 193 184 200 160 146 125 104 101 72 97 135 197 293 246 312 197 224 265 222 188 142 173 213 265 228 209 150 118 70 48 42 63 150 251 163
68 97 148 193 204 162 139 202 219 191 193 179 192 248 177 95 25 121 205 235 280 273 248 125 171 241 265 230 258 247 215 251 224 208 205 184 185 122 74 85 99 224 272
88 101 157 184 233 185 293 281 265 115 145 228 188 211 204 155 190 324 221 201 221 205 161 149 168 241 199 256 276 265 299 240 182 166 196 195 168 148 143 130 96 115 200
32 30 69 141 181 264 320 294 308 230 219 311 284 180 173 276 485 350 324 330 258 232 171 162 148 217 216 238 310 269 268 234 180 188 266 235 215 207 170 141 148 104 130
9 1 20 53 59 129 226 287 274 229 260 267 282 269 142 191 205 249 95 207 224 264 231 427 318 327 326 379 242 218 208 250 272 268 295 216 273 272 249 247 260 171 140
33 43 20 44 66 65 108 105 137 183 195 216 233 288 277 215 278 246 231 245 254 360 424 316 352 308 289 311 254 277 267 273 214 206 291 302 273 316 357 302 300 332 319
17 19 31 37 52 88 121 85 40 24 91 139 160 186 319 251 246 174 182 264 283 249 243 317 294 368 283 271 283 267 223 227 303 219 226 377 345 332 314 338 391 406 499

GFSMA_con_3kmhel_120.txt.gz
Helicity
131 134 133 128 125 127 131 135 135 138 137 157 160 157 130 103 80 66 56 40 19 34 56 65 58 53 54 64 63 74 95 143 156 146 142 92 69 129 137 141 140 135 109
149 141 137 130 128 127 120 140 148 145 138 143 134 148 150 134 113 94 71 43 23 18 36 60 70 67 75 77 93 85 93 130 153 155 156 110 70 119 148 159 138 148 125
207 196 137 139 130 128 121 130 165 183 168 155 122 135 151 143 132 108 97 75 43 14 34 55 58 64 71 63 97 98 100 117 145 135 153 125 76 96 160 174 148 141 129
185 143 158 184 126 138 160 154 167 167 182 180 144 136 155 148 155 144 121 111 86 55 38 30 33 33 51 63 74 91 95 113 137 154 172 136 67 138 171 183 168 139 128
194 155 137 110 135 189 167 161 193 184 175 204 230 88 140 138 134 169 150 145 138 95 74 61 38 35 49 71 82 79 91 103 143 156 163 125 114 135 153 190 172 147 132
187 149 142 165 169 151 127 128 168 293 268 194 285 656 18 -32 90 106 128 160 151 145 120 98 94 69 67 71 71 71 78 80 118 147 170 152 169 184 135 195 176 151 137
136 114 98 109 137 158 159 177 145 147 173 233 306 271 211 242 78 122 114 111 82 114 71 82 108 120 97 70 66 59 71 72 79 126 166 144 148 150 136 168 182 164 141
132 111 81 78 94 116 137 150 177 149 146 148 217 291 231 228 236 82 190 443 167 130 112 120 100 123 141 123 114 71 53 73 86 95 95 100 147 120 120 159 200 190 156
120 111 91 70 86 95 110 150 179 192 193 170 155 241 266 326 322 312 279 391 267 345 278 255 103 101 155 162 127 90 91 76 107 82 89 65 122 73 32 131 193 198 171
137 132 113 103 81 68 81 102 144 185 214 214 240 210 230 285 320 317 277 227 299 372 260 286 193 82 163 232 186 154 131 101 101 111 111 89 81 75 78 159 159 197 179
114 125 128 117 102 94 89 92 106 135 169 197 222 299 273 286 306 375 368 345 317 264 203 226 180 44 146 186 257 215 161 115 100 101 112 95 91 96 148 197 170 187 200
102 104 115 109 119 99 93 89 94 98 126 164 203 222 284 327 381 397 421 402 329 324 239 281 172 95 182 187 202 226 220 159 113 106 88 96 89 112 146 196 175 201 192
80 84 109 109 106 115 112 97 79 81 92 122 146 192 231 242 310 296 306 344 368 357 337 241 84 74 192 290 217 190 184 175 144 124 93 88 114 99 87 160 231 232 204
61 87 70 91 94 102 104 99 89 78 78 100 97 115 159 188 233 286 327 324 344 321 322 320 205 38 252 251 290 210 176 152 150 138 98 77 85 97 93 153 197 242 281
76 72 54 80 87 92 100 106 96 94 91 87 114 121 137 189 189 216 263 328 325 303 298 225 238 211 225 202 240 239 208 163 155 121 113 137 112 107 121 89 126 315 349
112 97 73 67 69 89 95 106 95 115 93 102 115 101 108 167 178 187 239 265 293 261 256 240 241 226 164 197 191 173 193 208 158 132 125 137 145 124 129 125 108 270 471
104 109 92 66 74 74 94 107 117 120 125 126 103 108 83 122 172 160 184 210 230 282 277 227 218 167 177 158 138 130 161 190 202 145 144 139 126 119 98 179 277 491 372
70 58 66 73 73 93 85 82 104 140 149 155 129 106 103 93 128 159 199 172 209 257 252 156 276 232 210 53 124 98 108 179 187 168 159 149 141 124 107 206 288 417 489
107 101 94 108 96 100 98 101 107 138 166 196 218 247 119 109 138 167 174 196 202 231 161 168 191 335 279 242 200 116 126 160 182 160 158 138 132 133 118 239 231 400 219
117 132 134 117 101 126 111 98 101 149 191 208 265 284 256 274 285 175 167 142 95 159 136 178 251 304 295 211 172 163 187 224 249 277 209 176 135 120 115 161 126 142 153
77 98 114 130 130 149 138 147 112 130 167 239 281 319 306 284 169 168 144 97 53 106 105 172 227 293 279 190 165 215 225 289 271 269 247 260 241 177 120 80 123 46 88
43 58 69 106 162 160 200 167 105 78 135 168 206 250 301 345 318 215 179 97 204 42 106 242 219 304 248 248 280 228 311 310 260 287 261 244 243 249 196 201 170 92 22
32 26 36 37 54 72 107 84 104 59 74 157 189 218 237 256 279 193 170 217 394 457 524 364 288 268 260 245 210 273 318 259 307 255 307 232 221 194 210 201 203 139 80
37 25 45 45 50 96 113 66 -8 -15 15 78 150 198 194 228 292 243 190 192 368 327 276 277 312 315 241 169 221 237 328 378 443 369 309 232 246 211 217 208 225 165 132
31 14 -4 26 44 54 104 104 48 11 -7 6 15 69 163 200 275 295 190 265 464 458 273 168 256 349 415 527 540 516 409 374 331 277 300 247 219 189 196 193 192 158 157
3 1 -7 9 40 50 95 93 51 19 18 3 -5 4 66 88 207 210 193 256 96 151 234 224 114 192 426 634 870 683 418 355 341 255 215 313 242 194 157 169 175 156 114

GFSMA_con_3kmhel_126.txt.gz
Helicity
85 113 165 190 160 119 134 134 136 123 102 93 84 67 67 58 55 65 60 108 86 67 46 34 17 22 24 42 44 58 50 67 111 148 145 123 119 81 70 89 146 131 118
88 85 99 124 155 167 140 121 140 147 132 134 107 83 69 63 61 64 70 80 92 78 69 49 40 17 18 28 57 68 73 68 112 134 160 143 136 117 121 117 146 151 121
152 122 69 72 94 111 130 150 137 132 160 170 138 138 114 78 72 74 78 77 86 88 84 66 58 50 33 31 44 56 63 64 105 138 143 157 136 129 131 170 107 140 142
140 92 82 102 161 142 167 133 136 122 165 193 192 173 177 137 92 83 83 83 87 78 85 86 72 71 59 33 41 60 61 57 70 115 119 138 149 151 159 159 127 137 151
147 103 61 39 54 84 94 122 157 131 133 160 191 199 198 189 146 166 120 92 86 93 73 101 86 83 72 72 58 72 80 71 89 91 101 130 137 157 186 180 144 149 156
156 129 96 83 77 67 69 90 103 120 160 186 161 211 252 206 159 145 135 121 117 104 52 60 106 103 70 92 76 82 106 96 87 95 108 112 127 157 174 195 192 178 157
146 130 109 107 108 101 98 113 126 126 113 108 136 149 214 255 296 477 355 101 231 110 50 62 151 79 107 53 54 78 82 71 97 114 120 122 135 146 168 200 198 195 161
166 151 135 122 113 120 115 114 121 129 128 131 160 184 236 234 229 194 196 283 -55 -111 66 -55 -41 -44 22 108 135 129 116 86 102 141 155 147 146 151 164 199 217 204 187
175 153 153 126 104 120 105 102 103 141 130 111 171 176 211 218 164 213 182 231 139 68 93 -2 11 4 109 150 160 155 120 102 126 150 182 180 166 148 155 197 208 193 196
115 110 112 120 107 109 114 108 125 135 137 121 110 160 136 160 158 148 143 181 184 197 166 111 7 56 125 167 104 137 201 140 148 134 183 168 170 168 163 178 201 195 189
110 83 100 130 105 146 102 109 115 128 146 140 107 142 182 136 135 156 143 142 116 136 133 134 95 105 195 193 155 131 209 191 120 122 164 182 178 152 157 173 177 179 179
23 26 79 88 115 121 128 116 100 98 106 118 112 118 138 175 175 131 88 101 92 100 110 101 86 91 104 162 95 165 221 200 156 107 119 174 176 173 167 178 165 171 171
-43 0 31 121 131 132 127 102 99 101 93 97 100 98 110 109 104 135 161 119 104 91 98 116 123 114 106 103 115 109 146 201 180 110 123 158 188 190 160 161 164 157 163
-17 -21 90 105 132 135 140 139 121 115 112 93 79 73 87 88 93 119 86 83 68 81 76 89 129 128 109 116 115 129 103 164 192 159 163 169 199 209 196 192 178 180 172
28 64 54 76 109 120 148 155 140 136 119 102 88 65 66 59 53 85 89 78 65 80 89 90 152 137 109 115 129 125 106 109 103 164 168 180 220 234 218 218 223 208 203
88 90 84 97 104 127 148 164 164 171 141 101 91 110 75 80 73 87 97 84 78 71 86 97 101 127 91 106 118 130 93 85 106 134 156 155 205 269 254 239 246 244 220
63 54 86 99 102 137 172 175 179 173 182 162 140 145 152 126 83 92 135 96 90 99 94 88 108 75 52 96 108 144 130 97 60 104 171 178 189 252 296 261 231 236 224
52 71 74 82 110 119 128 150 180 189 201 195 198 178 166 146 149 133 114 126 141 98 85 83 81 71 54 63 94 123 147 126 80 60 92 128 136 189 234 281 222 214 230
52 59 68 81 75 70 81 86 110 139 171 192 196 195 195 176 162 147 158 139 110 116 177 113 146 140 101 112 107 138 170 150 124 116 93 149 179 217 251 268 232 188 174
62 60 50 37 34 22 31 42 57 82 101 123 164 176 206 217 175 156 142 141 147 97 78 46 124 102 118 128 141 164 209 219 198 204 197 195 176 204 219 235 197 189 183
52 44 42 45 35 44 44 38 8 23 45 81 118 134 172 270 260 200 114 116 123 104 102 100 87 75 127 190 188 212 206 209 190 207 224 226 247 238 198 189 168 160 168
39 35 35 38 62 49 104 69 30 9 23 27 46 64 75 183 266 250 219 117 69 77 123 52 64 135 119 88 180 143 199 220 195 248 260 191 229 232 258 311 194 156 150
28 30 36 33 51 89 142 87 52 12 16 29 39 61 66 60 125 161 188 204 183 168 149 100 71 60 61 57 126 175 228 219 201 246 254 276 389 218 237 357 192 151 180
27 23 27 35 36 77 129 116 50 25 12 31 39 63 57 76 95 53 59 102 127 178 194 152 120 111 105 148 138 88 117 162 256 323 301 299 369 283 269 212 187 191 208
28 32 32 42 53 54 124 124 47 21 25 32 28 44 81 84 155 154 49 74 70 130 169 207 170 235 308 293 254 158 231 244 348 380 365 332 283 302 245 203 218 240 238
14 8 22 31 48 50 101 121 71 9 20 20 26 33 92 89 119 123 60 64 53 51 88 157 190 195 232 286 325 253 274 307 412 405 366 305 328 317 207 153 227 263 271

GFSMA_con_3kmhel_132.txt.gz
Helicity
182 133 115 99 73 75 86 96 93 125 141 150 130 101 97 115 105 74 119 249 238 202 165 134 140 106 85 93 92 91 86 78 70 81 75 88 88 90 86 82 98 105 108
182 155 156 164 156 132 103 78 59 72 105 142 155 126 55 73 123 156 158 195 184 217 180 135 139 114 95 102 100 100 97 98 91 98 89 96 93 86 93 104 82 96 135
232 195 140 129 118 118 113 90 67 73 55 47 34 62 101 68 87 140 160 202 183 168 202 173 139 134 114 113 103 106 106 104 122 132 115 117 123 118 122 117 99 112 140
240 226 188 160 105 92 74 77 81 94 51 58 45 75 68 58 51 103 126 148 183 201 192 159 142 119 127 106 92 99 105 105 127 147 139 135 130 132 135 144 152 143 114
215 264 281 299 258 155 116 123 128 127 93 71 41 46 22 53 127 251 33 20 71 242 234 175 166 143 105 100 92 78 81 95 118 159 178 173 157 161 164 162 136 160 159
209 256 237 245 236 243 229 189 149 112 91 62 65 58 49 89 119 136 95 22 31 297 347 343 308 117 60 72 102 71 54 65 77 130 173 188 182 182 202 192 154 168 170
149 148 202 170 174 181 164 142 97 94 79 98 84 91 65 50 99 117 124 137 211 113 -21 -8 63 171 201 200 193 75 42 32 69 69 144 189 180 189 208 200 189 176 185
74 111 146 139 158 141 124 125 128 79 57 117 91 52 40 50 38 86 115 141 165 163 152 169 161 26 75 105 201 92 73 56 98 71 110 193 202 197 205 208 198 195 202
85 107 157 136 107 110 97 94 92 115 92 64 116 100 68 92 68 46 63 126 153 225 208 181 134 99 91 146 162 114 146 74 100 102 124 172 213 205 186 194 210 194 184
85 105 159 167 105 98 98 76 74 67 90 96 49 117 149 147 89 31 57 86 74 114 158 196 199 124 163 172 144 170 179 56 -96 32 116 186 200 220 194 188 200 214 196
150 137 131 92 100 82 96 95 92 88 61 85 92 73 73 106 131 124 61 39 79 113 106 134 142 144 159 142 144 133 151 175 149 42 -56 146 170 204 202 194 188 213 235
59 74 94 116 79 61 41 44 62 81 77 95 87 85 104 90 106 123 111 42 25 -11 26 112 97 108 135 141 122 108 153 210 232 167 104 129 163 187 225 213 215 192 221
66 77 76 95 94 107 77 45 31 60 116 100 81 89 125 151 149 126 103 58 23 -16 -24 5 51 102 55 131 144 105 112 177 188 216 182 166 159 220 233 213 228 221 203
82 77 61 41 53 59 43 81 91 118 64 87 106 106 111 159 197 178 144 97 -7 -22 -35 -5 17 39 16 -68 24 64 114 97 131 204 218 198 205 269 278 247 235 270 239
93 103 86 70 80 100 91 67 50 63 46 31 75 132 144 127 123 115 105 114 96 -19 -35 -40 -11 31 31 61 85 25 38 7 90 170 208 232 238 250 276 302 297 281 293
89 99 122 105 108 136 117 56 53 61 51 34 32 74 119 116 98 96 100 89 90 81 0 -10 10 72 73 59 122 85 98 -29 -61 67 132 174 224 246 226 254 280 316 300
83 93 82 63 88 123 182 102 67 42 44 38 45 81 123 118 103 114 124 127 106 108 22 -50 -17 6 28 44 109 20 3 38 -57 -11 51 105 169 203 225 224 263 260 268
74 65 43 17 16 73 94 101 54 73 83 98 102 98 145 126 141 139 118 129 110 115 77 2 2 17 22 27 5 -17 40 55 4 -44 -39 5 84 119 153 189 242 248 248
114 74 52 50 63 77 97 98 14 14 22 27 49 31 90 121 165 160 139 165 162 117 92 51 23 63 40 -2 48 21 25 57 32 151 60 78 74 96 118 140 177 219 257
91 66 20 71 35 93 115 97 33 11 27 17 44 4 14 68 88 84 85 135 167 161 166 120 98 98 80 107 -13 -4 -21 -46 5 96 108 23 79 90 112 138 150 166 191
69 78 35 36 73 60 79 87 29 9 33 45 63 59 38 89 94 59 -2 11 60 113 162 150 159 97 100 140 76 38 -22 -7 -13 -37 -17 80 108 82 143 140 141 138 152
52 89 93 37 64 56 96 108 46 30 35 35 69 79 71 132 134 88 78 56 29 12 38 93 150 172 141 115 138 100 -4 -79 -201 -6 -19 25 9 54 71 169 149 156 159
45 58 82 58 65 84 122 129 49 29 18 16 32 68 76 100 138 111 101 83 75 83 60 -9 -16 6 70 175 203 142 84 40 -27 8 -59 -157 -11 -10 82 65 58 140 183
34 39 43 54 49 85 129 120 112 29 15 17 9 39 72 94 108 101 100 98 92 89 86 45 25 20 6 27 29 34 69 86 66 -113 5 -242 31 -54 52 102 136 105 208
19 7 9 9 30 52 98 116 84 68 36 21 22 29 34 39 93 102 78 103 105 126 108 101 97 112 124 129 98 42 40 15 35 7 0 -22 -28 -24 -39 13 108 75 85
23 3 -6 -1 39 34 88 97 80 67 41 17 17 22 71 57 81 85 27 50 81 109 105 100 88 115 128 143 168 102 53 20 -3 -61 -36 -9 22 -54 -160 8 149 64 58

GFSMA_con_3kmhel_135.txt.gz
Helicity
188 181 176 197 144 120 122 78 61 59 60 85 124 138 146 168 173 195 157 89 126 194 173 189 172 156 172 148 112 99 89 73 61 68 83 82 87 99 84 75 89 100 78
221 207 211 204 168 115 105 111 109 70 41 49 82 73 31 14 40 86 120 79 120 195 151 162 164 152 157 156 128 115 100 88 88 83 90 98 110 120 111 103 97 92 84
320 286 233 287 242 195 135 116 117 109 99 118 89 61 65 61 67 77 16 -29 61 124 134 144 161 168 153 151 134 114 99 99 95 100 96 112 116 132 127 109 105 98 104
276 298 298 250 218 171 195 226 199 173 135 114 101 95 83 70 38 55 114 152 89 58 78 71 131 170 150 140 132 118 100 96 98 95 99 118 125 140 147 144 127 122 116
215 220 211 205 201 168 122 130 140 133 117 114 108 97 88 81 67 92 103 140 146 417 51 59 78 199 184 137 102 106 105 100 98 99 101 100 121 125 154 167 159 161 159
203 220 158 222 145 153 134 146 144 133 110 88 83 79 73 70 61 80 90 105 114 116 256 165 76 204 252 115 58 82 56 106 128 111 100 95 104 121 129 157 175 180 193
162 196 184 172 159 115 139 130 138 178 136 137 37 64 74 73 66 86 98 104 111 166 214 180 106 166 -41 48 90 49 -11 37 93 122 99 97 94 116 134 139 157 171 192
134 161 219 231 219 186 219 154 145 108 94 146 83 60 78 58 154 142 103 86 90 145 138 157 183 189 155 73 73 -2 55 0 58 75 114 101 110 117 128 152 148 158 181
134 153 159 168 184 201 163 147 141 146 138 91 145 80 114 135 83 74 121 111 140 107 153 155 164 162 188 163 98 47 58 27 129 51 90 92 116 128 135 142 146 141 165
82 82 119 134 125 119 165 169 126 113 98 135 130 203 168 141 138 78 97 76 74 134 169 164 134 121 168 162 105 66 110 123 94 48 57 70 101 137 160 167 142 150 156
94 89 110 140 131 118 108 110 135 143 116 109 113 119 129 146 98 120 54 76 29 83 73 61 115 150 115 148 232 188 151 179 152 161 53 22 54 121 184 202 174 141 160
56 74 92 97 112 133 142 125 104 93 92 81 79 109 134 138 172 140 98 71 55 36 44 72 69 97 134 125 153 126 125 151 144 162 169 131 53 87 203 217 182 147 154
53 65 76 87 82 99 107 120 122 90 92 95 88 82 75 114 139 142 115 78 53 35 5 -30 72 99 50 89 125 93 26 41 132 166 147 187 162 77 190 197 164 165 171
62 71 84 76 84 83 88 104 89 59 74 113 163 136 118 121 97 88 106 68 -10 27 34 24 50 95 92 75 135 132 55 135 52 144 169 216 190 115 188 168 188 199 196
59 71 66 76 98 121 112 97 89 87 78 103 129 156 175 160 110 107 123 152 139 35 -32 -35 -44 94 115 80 90 98 86 112 137 143 126 129 156 160 162 178 225 227 237
66 47 53 68 100 138 146 63 80 86 83 97 102 116 120 129 105 123 163 154 147 140 62 36 -29 72 76 88 97 127 149 204 197 184 115 123 93 126 149 150 198 230 262
73 73 53 53 73 116 138 77 63 64 134 107 115 154 186 188 139 135 141 145 150 141 74 33 2 30 58 0 94 146 139 187 199 285 254 152 90 106 134 163 192 219 236
86 93 58 52 73 111 119 71 51 35 54 86 38 87 144 149 180 147 151 169 154 121 103 71 57 42 64 77 100 125 172 133 199 264 270 164 184 111 145 113 107 143 206
89 82 98 88 100 117 131 90 52 52 54 77 27 31 84 94 115 104 85 140 165 151 139 80 62 75 61 93 128 134 143 169 178 152 222 245 204 167 156 122 115 117 135
154 53 51 42 91 127 127 106 48 56 74 73 73 12 80 91 86 92 67 78 84 91 118 125 122 115 110 147 70 81 170 191 229 139 185 139 193 178 197 144 125 102 73
134 30 30 65 91 118 114 52 34 39 59 62 66 72 82 95 101 99 45 75 90 79 61 52 88 130 166 216 202 175 133 161 133 30 154 206 110 84 103 175 170 286 295
69 40 56 77 104 105 140 87 47 23 37 62 80 85 92 124 111 100 100 108 110 94 86 47 19 48 77 121 173 163 187 170 87 47 33 242 88 146 79 136 244 259 169
70 72 65 69 81 89 111 119 80 28 30 39 50 65 74 89 87 88 86 88 105 126 95 39 43 39 42 63 56 74 109 122 132 119 66 168 72 163 268 229 262 312 219
29 20 58 78 85 90 114 107 92 27 11 29 43 26 46 61 66 77 58 76 86 80 65 28 24 25 28 43 40 17 48 59 47 -42 -79 83 192 264 353 283 257 400 350
28 25 23 61 94 79 102 104 72 30 24 36 50 44 15 46 98 113 72 81 87 118 91 92 92 97 104 110 92 35 60 5 3 -41 -35 -13 -7 120 150 173 256 397 357
30 21 29 33 98 93 84 84 73 38 43 50 75 82 89 64 87 102 62 78 87 109 98 103 119 131 130 137 154 78 36 11 -9 -86 -15 -20 -59 -155 -37 22 172 154 179

GFSMA_con_3kmhel_138.txt.gz
Helicity
261 238 196 170 159 148 158 157 105 85 76 53 53 75 104 110 93 119 137 100 85 80 72 34 110 161 161 142 172 173 134 111 108 100 84 93 84 78 75 85 89 78 77
263 270 251 210 173 167 167 171 160 149 135 119 99 72 86 112 114 118 121 129 97 113 36 108 65 61 108 136 147 182 159 115 112 106 97 108 103 96 94 97 86 88 89
309 272 246 294 265 202 179 167 137 111 116 130 136 120 94 73 85 118 140 159 85 104 132 -57 -33 3 86 103 161 161 171 141 108 105 103 109 123 116 105 106 103 99 94
278 275 246 244 263 229 202 129 110 90 90 96 105 122 125 104 77 77 111 107 156 166 142 83 66 47 200 335 93 112 119 130 126 104 106 110 123 125 117 121 128 115 125
214 197 223 248 243 228 203 197 103 61 64 79 106 109 104 102 99 83 84 75 89 132 159 153 110 139 135 177 162 63 77 73 95 109 105 110 123 131 126 120 123 124 123
192 198 202 222 214 256 217 158 122 128 93 93 92 102 110 102 89 88 85 73 81 73 119 173 116 127 133 75 31 315 107 -24 87 44 107 121 113 130 142 134 121 123 122
180 205 212 244 271 271 228 216 167 161 84 135 71 111 101 113 117 106 123 120 105 82 103 143 163 153 124 57 79 133 20 29 -12 2 12 54 103 129 140 156 136 128 133
135 151 173 193 222 222 244 256 232 208 132 159 94 89 138 175 197 193 204 222 234 176 120 109 132 135 164 162 96 124 226 76 -75 -58 -6 78 63 130 142 142 154 136 152
90 110 134 145 156 166 174 195 203 229 189 171 167 109 144 172 185 212 209 201 174 187 171 180 168 138 190 208 182 132 71 23 -56 -63 -63 22 45 21 86 124 144 140 138
106 104 122 129 134 127 146 146 159 177 173 158 195 173 124 94 107 142 196 211 184 157 127 138 127 179 165 157 192 211 186 118 54 6 -79 -10 81 88 20 59 127 131 133
128 144 145 137 123 108 115 130 157 184 183 184 187 169 212 186 123 133 149 154 106 120 138 105 122 125 200 195 215 205 150 200 220 134 65 19 84 167 54 46 102 127 123
88 119 128 122 126 122 123 119 141 159 156 163 165 177 193 183 205 187 159 138 133 56 79 110 189 216 211 209 233 256 252 215 214 131 88 58 44 27 -16 34 73 119 124
73 83 79 95 107 137 139 133 142 141 151 154 159 156 168 203 187 134 130 132 101 51 15 93 90 219 251 267 251 250 250 276 201 175 102 86 89 44 8 -10 30 70 82
69 55 52 61 98 120 122 119 119 132 160 144 182 173 164 175 205 195 154 117 30 6 19 70 81 118 149 163 221 290 206 208 105 107 35 94 119 89 57 93 36 29 -24
55 49 58 72 78 94 97 74 104 134 122 123 158 168 159 149 152 176 182 156 80 -35 -58 -17 74 152 164 183 220 203 226 278 218 149 271 226 219 129 136 52 13 38 28
116 94 94 99 100 101 85 73 63 99 103 88 104 135 138 171 149 140 145 155 148 84 -20 35 95 128 117 180 196 224 238 312 272 252 288 277 275 170 148 107 112 14 -29
101 96 103 107 122 121 84 51 52 72 96 35 67 96 148 189 169 129 125 124 121 88 38 61 94 85 101 172 219 225 244 215 257 332 314 377 272 241 103 95 90 112 109
124 83 93 123 135 134 113 57 75 83 98 65 60 59 77 72 109 98 92 120 140 112 95 96 109 131 138 171 162 211 241 226 263 265 372 389 384 447 386 279 156 160 218
116 103 110 130 140 120 76 33 57 71 88 82 74 76 72 73 84 69 62 86 98 42 48 52 90 124 162 201 237 217 242 282 216 301 401 389 492 408 382 281 341 297 257
110 98 105 115 113 105 83 50 52 59 61 56 59 62 49 75 81 74 58 67 52 49 46 31 54 84 149 223 196 254 325 284 189 249 381 328 369 401 422 377 378 415 320
99 91 85 113 108 95 47 53 57 66 69 69 64 58 62 68 76 63 30 64 65 45 29 36 50 50 103 159 206 222 231 262 117 188 342 208 334 380 387 412 458 461 384
91 85 76 104 98 71 82 84 43 45 58 63 66 53 47 83 46 60 73 103 92 40 43 27 25 56 86 106 120 92 95 119 100 156 272 195 289 318 384 346 456 428 417
101 107 91 75 93 69 84 73 64 39 50 45 56 59 46 45 63 42 55 71 70 72 41 -1 -2 -3 20 56 65 56 99 72 50 31 33 94 235 342 305 292 386 420 378
93 87 97 76 42 70 78 71 69 56 72 73 49 58 35 22 75 54 39 52 61 52 37 2 -3 -4 9 16 15 -9 9 24 -10 -14 -19 -14 78 279 254 189 341 363 361
88 98 93 101 70 28 87 73 49 49 73 78 61 21 18 14 84 93 58 60 59 76 41 46 47 62 63 75 59 3 4 -35 -11 -63 -25 -12 -2 113 174 139 160 238 239
68 76 93 104 107 51 71 91 60 35 57 55 51 52 92 55 89 100 54 67 81 116 121 130 116 102 82 57 72 -6 -28 -49 -61 -93 -25 -40 -41 -40 8 107 155 172 112

GFSMA_con_3kmhel_141.txt.gz
Helicity
270 265 266 242 242 224 193 135 106 109 131 137 131 109 99 86 106 119 133 112 120 131 123 139 187 147 54 90 134 147 137 149 164 158 138 108 97 95 80 87 91 99 77
225 230 220 213 210 182 177 186 176 142 138 137 131 129 115 97 90 90 125 156 135 129 132 122 134 178 105 150 115 -3 73 107 126 159 163 130 105 101 89 99 105 100 105
209 203 221 208 180 188 172 133 150 136 140 146 145 123 106 105 87 82 101 125 134 103 123 108 98 300 186 113 173 275 75 57 100 120 156 158 122 101 100 105 106 108 92
181 170 175 193 181 164 175 167 135 140 132 119 120 138 121 105 92 88 101 101 109 126 87 33 11 28 132 -39 35 270 63 13 20 65 108 148 144 116 105 109 108 115 105
175 146 157 175 176 159 175 176 157 138 121 122 171 150 122 122 115 105 102 87 89 95 84 66 -10 52 67 46 93 64 77 49 -7 -11 82 113 141 142 131 122 113 111 125
154 147 155 177 179 177 189 188 185 171 118 118 117 110 123 134 125 112 111 98 93 79 78 77 54 55 82 85 94 50 71 70 131 95 41 30 20 101 142 136 136 126 122
83 97 102 122 139 150 170 186 165 203 166 195 96 115 106 120 179 188 192 166 189 174 99 97 103 87 102 103 104 34 32 28 140 86 49 85 11 22 103 142 145 150 140
60 73 92 101 114 113 143 169 183 152 127 180 110 73 116 156 209 222 270 298 309 254 298 277 296 262 182 132 130 110 44 46 97 56 58 57 59 -32 40 79 89 147 165
69 87 102 106 112 110 121 149 177 194 161 157 199 149 166 155 149 188 259 254 279 263 260 244 275 294 239 193 145 156 154 135 52 82 140 52 32 -64 -87 54 70 91 136
77 80 78 94 110 121 136 144 152 166 172 179 206 256 212 175 125 160 226 204 184 147 143 137 195 195 224 201 222 274 338 277 170 128 13 2 -2 58 91 -10 46 36 60
80 104 113 123 124 119 142 163 171 167 158 158 166 160 197 220 167 150 98 131 164 148 94 110 127 126 180 247 268 266 365 327 306 309 225 108 29 41 63 63 61 59 -3
73 99 87 92 109 130 144 146 166 163 170 165 158 167 175 184 247 242 165 103 59 90 118 109 121 113 109 188 255 346 345 369 331 349 317 211 171 92 75 68 67 97 14
57 80 69 69 65 84 105 124 149 143 133 135 145 144 153 186 176 153 143 82 41 -23 -62 25 62 82 150 155 188 319 372 320 329 300 300 296 252 124 102 99 87 79 127
67 70 74 75 75 82 86 107 109 94 96 93 136 133 167 203 184 170 132 89 6 11 -68 -78 5 73 107 157 184 243 219 302 360 261 244 277 292 207 139 139 150 145 161
90 98 99 107 117 116 117 87 74 76 63 65 82 107 131 163 151 139 128 116 77 -3 -3 76 126 123 121 145 171 192 220 315 342 325 253 257 284 289 200 174 174 196 154
126 119 119 133 140 116 100 70 60 59 46 47 47 64 85 117 118 69 83 104 103 94 51 109 120 130 146 162 207 240 278 321 327 371 362 367 401 501 395 326 250 153 164
131 123 121 128 137 136 106 87 56 76 54 55 73 68 82 68 63 59 66 94 125 107 93 96 80 66 133 187 227 246 244 237 271 369 369 348 354 419 467 549 401 324 301
121 118 128 142 142 126 104 74 61 51 61 72 81 70 106 85 71 41 24 62 81 58 53 66 51 93 127 177 185 221 227 217 225 350 358 351 346 321 468 468 513 390 335
134 131 145 156 138 103 72 59 57 53 61 70 63 69 98 85 90 44 42 47 65 34 34 9 22 43 105 166 225 228 189 238 221 334 331 327 335 302 281 420 343 529 522
137 129 137 126 95 84 79 70 61 57 58 60 55 58 68 66 64 45 51 50 42 26 34 18 32 48 66 97 92 211 290 268 189 291 298 271 286 286 244 339 417 226 461
134 115 121 103 84 66 66 57 53 51 54 46 46 43 52 44 60 63 23 44 38 38 38 39 35 49 101 151 163 140 114 152 114 215 343 215 263 226 190 216 273 393 308
110 105 105 94 107 80 89 67 57 45 55 57 46 39 41 62 38 59 62 72 53 22 37 20 17 47 83 99 111 106 99 90 89 104 251 168 260 252 257 231 367 316 334
97 95 106 105 100 73 64 60 62 36 34 35 37 27 44 47 44 27 37 45 57 62 31 1 5 14 38 69 85 80 73 47 3 59 115 78 184 198 221 235 357 348 384
108 95 97 80 61 56 56 57 61 40 40 33 11 3 1 38 73 35 24 30 32 25 7 -11 -4 1 12 20 32 18 47 41 -19 -21 -9 3 129 258 154 140 291 267 272
127 121 90 66 50 50 68 56 44 58 83 85 55 -35 -3 20 82 85 51 45 46 52 6 14 10 22 23 51 41 -3 56 37 -65 -24 16 -14 22 149 73 61 130 145 208
105 116 134 111 73 23 62 65 54 45 74 63 74 90 59 16 56 66 25 32 36 30 19 33 40 39 35 8 39 -16 -45 -70 -62 -53 6 -11 -14 -67 -7 48 70 55 79

GFSMA_con_3kmhel_147.txt.gz
Helicity
227 235 250 237 235 223 216 201 196 181 157 144 122 116 110 91 69 75 75 61 54 55 48 42 47 55 81 91 108 94 71 64 73 97 90 99 87 89 86 105 130 98 83
199 200 202 205 193 202 196 175 178 162 144 139 122 113 95 78 72 75 92 88 73 68 64 59 56 61 87 108 149 211 93 201 156 115 101 97 118 102 89 99 115 123 106
178 163 157 155 147 134 137 126 118 108 106 96 93 83 75 76 63 79 87 86 86 68 87 93 93 111 132 132 145 157 18 91 115 81 64 115 149 91 114 122 121 126 102
150 132 126 119 100 87 87 83 85 76 72 76 73 73 73 77 82 81 80 90 96 88 86 106 113 111 120 113 82 87 107 155 134 162 159 172 135 118 76 79 114 98 109
129 111 110 105 90 80 80 74 63 62 58 64 61 56 61 78 90 92 92 93 115 116 125 122 126 118 95 86 42 38 57 75 83 98 137 178 152 100 116 34 104 105 109
94 73 71 72 58 56 60 63 62 61 52 54 45 48 61 82 126 158 184 206 234 242 226 237 213 231 238 184 94 67 52 46 63 65 70 97 47 105 41 -5 86 92 84
81 73 60 60 50 53 53 61 61 78 73 86 60 74 82 112 161 179 188 201 273 288 274 256 215 213 273 310 399 412 242 218 138 82 30 19 16 52 -284 15 -125 -55 71
91 75 64 57 60 54 73 80 82 69 61 76 46 19 93 102 188 191 208 230 252 245 278 244 229 237 248 219 294 355 405 362 313 283 183 122 105 62 -96 -43 -48 -58 -51
84 80 80 73 71 58 39 27 20 37 35 60 76 90 107 170 178 183 209 229 231 200 200 201 176 204 236 222 240 270 357 361 306 195 164 184 105 53 -22 26 23 13 -41
88 83 72 49 25 -2 0 0 9 20 44 65 82 123 137 150 150 161 191 235 220 222 188 155 111 124 162 169 214 216 195 214 190 173 165 170 171 157 170 156 146 151 63
102 72 44 23 18 10 24 43 55 63 52 48 55 77 113 125 178 178 129 171 120 114 105 122 55 84 115 152 152 165 188 96 97 77 137 177 193 182 156 148 242 187 97
46 42 26 24 28 30 47 50 61 84 69 55 46 61 84 110 153 160 138 104 82 56 36 71 71 76 120 143 156 206 153 49 29 38 96 139 158 135 127 93 83 102 126
52 54 43 51 54 63 69 70 86 93 100 104 114 104 104 110 99 98 104 100 25 67 44 67 117 159 115 130 155 203 82 93 67 21 19 100 155 125 102 100 116 141 115
64 60 67 67 75 78 71 75 82 89 110 124 151 127 99 95 81 77 60 51 37 29 55 125 57 95 111 84 107 177 120 115 129 115 70 72 80 110 133 121 149 145 191
83 86 83 89 91 83 84 89 99 112 107 117 114 101 77 70 68 71 50 5 -4 15 76 97 89 88 71 109 143 165 166 136 117 161 141 105 122 148 144 138 151 142 163
88 84 91 107 110 100 110 109 103 106 104 97 81 90 80 78 69 72 63 43 12 -24 36 80 26 10 44 120 195 232 199 108 163 174 172 150 171 185 225 225 176 134 164
93 103 107 108 97 104 111 104 102 96 112 102 98 97 83 76 76 70 68 42 30 11 21 41 34 37 76 151 197 220 252 143 125 162 187 206 179 243 255 310 301 246 219
111 104 103 103 111 123 109 100 104 98 106 104 93 86 86 61 68 75 59 35 30 22 16 17 23 24 62 111 123 149 179 157 170 209 201 260 267 314 297 307 342 308 252
120 125 106 110 117 113 106 89 98 90 85 83 75 81 83 72 74 67 56 26 46 19 23 21 7 16 33 87 109 105 136 155 203 217 224 243 263 241 260 267 301 315 325
125 96 95 117 125 112 100 95 77 68 69 65 63 67 72 66 65 59 49 36 33 17 16 18 17 28 46 71 53 82 84 122 166 178 138 143 150 137 174 187 237 250 273
112 100 94 131 132 120 95 68 77 56 54 63 65 71 75 72 81 81 45 38 27 11 -1 -3 6 16 63 101 131 102 58 51 42 117 90 94 89 86 110 131 163 201 213
121 114 120 147 131 102 101 110 67 65 65 59 66 75 62 56 60 76 70 75 58 30 39 31 38 56 81 84 83 74 61 46 16 75 74 27 63 56 75 86 141 160 182
118 125 131 122 109 101 113 98 83 69 75 75 85 78 64 44 47 38 46 46 61 63 57 35 33 41 54 84 89 75 65 26 33 99 45 7 61 34 72 69 85 104 120
134 135 124 105 106 91 90 94 80 68 75 79 79 74 63 58 46 22 21 28 25 45 45 25 37 43 62 77 71 67 65 4 1 48 110 50 125 40 24 21 54 90 90
144 159 121 111 116 97 92 84 68 62 70 71 57 55 51 42 46 27 11 6 6 2 -1 28 32 37 42 62 64 19 64 22 12 36 97 47 157 91 9 27 40 73 101
150 124 124 109 117 113 99 74 56 45 66 66 64 50 56 38 40 32 3 -17 -12 -26 -29 -10 5 15 17 19 40 10 -1 12 7 16 110 73 125 119 38 41 55 65 82

GFSMA_con_3kmhel_153.txt.gz
Helicity
148 130 150 160 168 167 164 171 154 137 136 123 124 133 133 136 131 136 147 123 88 68 77 91 97 92 99 95 79 69 78 75 67 73 83 82 85 65 53 87 119 117 148
155 140 132 145 142 158 165 142 157 139 134 128 108 106 107 108 100 100 102 124 93 56 66 132 170 199 190 171 140 109 56 83 99 80 94 98 86 99 70 61 100 95 82
147 148 154 152 151 137 120 116 110 100 90 81 78 67 57 44 62 80 69 65 96 186 229 206 174 189 193 187 185 177 153 83 51 70 68 101 79 135 120 103 102 119 90
150 150 140 143 136 126 132 133 126 124 106 90 79 71 77 67 70 60 44 78 112 177 164 118 159 178 229 226 191 161 147 144 117 81 87 53 64 120 167 123 115 82 124
150 144 139 125 123 117 118 117 109 104 87 79 71 62 60 64 70 91 143 172 156 134 160 114 85 142 227 263 292 332 317 279 202 120 62 64 42 90 113 148 121 80 107
129 114 109 110 102 103 105 117 111 101 79 83 73 58 56 66 90 108 107 149 158 178 201 205 179 113 193 265 321 355 377 389 310 274 262 175 79 64 64 81 88 99 72
131 128 115 106 101 116 107 97 80 71 74 77 50 90 52 76 90 114 156 198 213 171 171 184 204 213 109 188 266 315 352 388 401 377 346 293 246 175 114 92 96 116 122
130 128 122 115 106 85 89 91 95 73 75 93 95 50 75 62 78 74 73 28 92 96 80 113 168 210 220 194 208 258 303 337 340 382 418 340 269 246 260 180 122 124 120
134 126 117 104 102 98 98 103 107 121 96 89 120 110 110 170 143 94 64 180 152 87 110 126 55 143 181 188 195 196 222 225 247 248 349 401 343 246 222 228 286 163 97
138 128 126 123 125 122 123 116 117 114 103 96 55 83 96 117 136 150 220 191 228 148 161 271 350 356 309 231 214 249 226 207 197 192 170 212 270 254 217 182 156 195 212
145 137 131 134 136 130 134 138 138 132 108 93 97 88 91 119 124 113 110 190 136 141 236 271 278 310 304 246 152 191 176 192 181 145 85 65 109 237 183 184 251 206 192
151 145 148 157 155 147 144 134 126 136 131 135 114 117 126 137 148 137 128 138 155 172 220 160 158 164 139 126 145 213 150 121 92 121 96 94 143 119 153 199 159 187 170
170 162 155 150 150 153 151 139 132 138 146 141 139 123 134 139 128 122 129 171 172 109 178 171 129 91 65 48 88 213 136 117 106 84 105 75 56 96 147 172 145 168 231
200 169 164 168 158 149 143 133 128 133 140 129 131 119 104 127 155 183 200 181 161 131 161 160 68 135 100 79 87 216 171 131 176 127 136 131 98 126 125 173 186 173 188
203 189 174 161 161 142 131 123 136 135 119 111 96 93 123 135 133 130 129 119 123 140 167 197 147 99 71 60 90 137 224 182 233 263 212 221 243 219 146 135 195 204 231
210 174 155 166 158 142 131 120 126 125 101 97 113 130 123 105 107 104 106 111 124 124 125 141 90 42 66 52 53 114 138 124 220 304 226 207 289 297 258 202 118 186 220
198 179 167 185 164 146 131 132 110 107 130 129 126 116 93 83 88 98 88 95 91 97 99 87 85 106 61 75 50 90 95 72 98 252 235 193 190 265 308 363 173 154 188
210 192 151 190 163 134 114 106 119 132 139 145 122 108 111 100 97 105 108 96 93 61 80 60 78 78 72 58 53 48 75 43 59 164 183 185 165 218 269 318 342 197 295
200 163 164 156 132 139 119 116 114 142 144 129 122 130 134 128 134 124 114 100 82 67 67 62 67 80 53 43 60 56 33 53 33 71 65 102 100 171 224 273 314 293 327
171 183 163 160 164 131 120 105 118 129 123 110 128 134 140 154 159 147 125 91 78 68 78 63 70 69 50 47 40 31 17 34 17 43 44 72 44 71 141 201 232 225 281
230 196 175 164 134 142 149 120 117 100 101 107 109 116 131 154 183 225 156 118 95 85 89 71 65 65 44 33 38 28 8 85 3 16 93 78 79 38 73 114 165 191 206
245 197 183 139 135 142 161 207 106 114 101 98 92 100 104 120 145 159 183 175 162 119 118 83 64 70 67 38 20 20 -5 -15 6 20 94 11 107 34 17 66 149 161 192
224 216 159 126 155 158 193 231 184 140 150 153 149 120 120 117 103 108 111 120 136 144 153 115 83 79 65 57 25 14 15 -4 5 38 54 -12 65 12 29 17 79 109 117
296 242 156 129 136 163 179 206 168 150 143 163 165 155 158 136 116 103 92 88 101 110 105 89 85 73 78 79 48 17 16 3 17 18 71 3 28 14 15 34 62 107 95
216 161 138 141 130 138 152 139 133 137 149 173 182 172 153 143 127 122 82 71 72 81 80 80 76 78 85 106 102 49 71 36 18 44 69 9 61 41 16 38 39 96 95
137 139 182 165 140 147 144 166 132 120 129 146 161 176 191 153 133 114 70 67 68 64 58 60 63 65 66 71 96 77 65 55 50 22 88 34 72 80 17 23 59 60 101